| time (UTC) | temp C | wind direction | speed KPH | gust KPH | rain 1hr cm | rain 24hr cm | rain mn cm | humidity % | barometer mb |
| 20260502220629 | 17 | 288 | 17.7 | 22.5 | 0.00 | 0.00 | 0.00 | 38 | 1011.9 |
| 20260502220507 | 17 | 286 | 16.1 | 22.5 | 0.00 | 0.00 | 0.00 | 40 | 1011.9 |
| 20260502220409 | 17 | 309 | 14.5 | 22.5 | 0.00 | 0.00 | 0.00 | 39 | 1011.9 |
| 20260502220314 | 17 | 273 | 16.1 | 22.5 | 0.00 | 0.00 | 0.00 | 40 | 1011.9 |
| 20260502220217 | 18 | 292 | 16.1 | 22.5 | 0.00 | 0.00 | 0.00 | 39 | 1012.0 |
| 20260502220104 | 18 | 302 | 12.9 | 20.9 | 0.00 | 0.00 | 0.00 | 41 | 1012.0 |
| 20260502220008 | 18 | 269 | 12.9 | 20.9 | 0.00 | 0.00 | 0.00 | 39 | 1012.0 |
| 20260502215932 | 18 | 292 | 9.7 | 20.9 | 0.00 | 0.00 | 0.00 | 40 | 1012.0 |
| 20260502215817 | 18 | 291 | 11.3 | 20.9 | 0.00 | 0.00 | 0.00 | 39 | 1012.0 |
| 20260502215719 | 18 | 294 | 14.5 | 20.9 | 0.00 | 0.00 | 0.00 | 40 | 1012.0 |
| 20260502215622 | 18 | 269 | 14.5 | 20.9 | 0.00 | 0.00 | 0.00 | 39 | 1012.0 |
| 20260502215509 | 18 | 294 | 12.9 | 20.9 | 0.00 | 0.00 | 0.00 | 39 | 1011.9 |
| 20260502215433 | 18 | 304 | 12.9 | 20.9 | 0.00 | 0.00 | 0.00 | 39 | 1012.1 |
| 20260502215336 | 18 | 298 | 11.3 | 22.5 | 0.00 | 0.00 | 0.00 | 41 | 1012.0 |
| 20260502215240 | 18 | 318 | 11.3 | 22.5 | 0.00 | 0.00 | 0.00 | 40 | 1012.0 |
| 20260502215104 | 18 | 279 | 11.3 | 22.5 | 0.00 | 0.00 | 0.00 | 39 | 1012.1 |
| 20260502215007 | 18 | 308 | 11.3 | 22.5 | 0.00 | 0.00 | 0.00 | 41 | 1012.1 |
| 20260502214912 | 18 | 319 | 12.9 | 22.5 | 0.00 | 0.00 | 0.00 | 41 | 1012.1 |
| 20260502214816 | 18 | 301 | 12.9 | 22.5 | 0.00 | 0.00 | 0.00 | 41 | 1012.0 |
| 20260502214725 | 18 | 312 | 14.5 | 22.5 | 0.00 | 0.00 | 0.00 | 39 | 1012.1 |
| 20260502214650 | 18 | 305 | 16.1 | 22.5 | 0.00 | 0.00 | 0.00 | 39 | 1012.0 |
| 20260502214505 | 18 | 295 | 17.7 | 22.5 | 0.00 | 0.00 | 0.00 | 40 | 1012.1 |
| 20260502214408 | 18 | 294 | 14.5 | 22.5 | 0.00 | 0.00 | 0.00 | 41 | 1012.1 |
| 20260502214331 | 18 | 286 | 12.9 | 25.7 | 0.00 | 0.00 | 0.00 | 41 | 1012.1 |
| 20260502214213 | 18 | 285 | 14.5 | 25.7 | 0.00 | 0.00 | 0.00 | 41 | 1012.1 |
| 20260502214117 | 18 | 318 | 16.1 | 29.0 | 0.00 | 0.00 | 0.00 | 40 | 1012.2 |
| 20260502214025 | 18 | 312 | 14.5 | 29.0 | 0.00 | 0.00 | 0.00 | 41 | 1012.2 |
| 20260502213949 | 18 | 306 | 14.5 | 29.0 | 0.00 | 0.00 | 0.00 | 39 | 1012.1 |
| 20260502213805 | 18 | 297 | 14.5 | 29.0 | 0.00 | 0.00 | 0.00 | 42 | 1012.1 |
| 20260502213710 | 18 | 302 | 14.5 | 29.0 | 0.00 | 0.00 | 0.00 | 41 | 1012.2 |
| 20260502213614 | 17 | 279 | 16.1 | 30.6 | 0.00 | 0.00 | 0.00 | 39 | 1012.2 |
| 20260502213517 | 17 | 302 | 16.1 | 30.6 | 0.00 | 0.00 | 0.00 | 41 | 1012.2 |
| 20260502213426 | 17 | 333 | 19.3 | 30.6 | 0.00 | 0.00 | 0.00 | 39 | 1012.3 |
| 20260502213309 | 17 | 305 | 22.5 | 30.6 | 0.00 | 0.00 | 0.00 | 40 | 1012.3 |
| 20260502213234 | 17 | 295 | 20.9 | 30.6 | 0.00 | 0.00 | 0.00 | 42 | 1012.3 |
| 20260502213117 | 17 | 284 | 19.3 | 30.6 | 0.00 | 0.00 | 0.00 | 39 | 1012.3 |
| 20260502213022 | 17 | 281 | 17.7 | 30.6 | 0.00 | 0.00 | 0.00 | 38 | 1012.3 |
| 20260502212926 | 17 | 303 | 19.3 | 30.6 | 0.00 | 0.00 | 0.00 | 38 | 1012.3 |
| 20260502212803 | 17 | 300 | 19.3 | 30.6 | 0.00 | 0.00 | 0.00 | 39 | 1012.3 |
| 20260502212712 | 18 | 296 | 14.5 | 27.4 | 0.00 | 0.00 | 0.00 | 39 | 1012.4 |
| 20260502212617 | 17 | 286 | 14.5 | 27.4 | 0.00 | 0.00 | 0.00 | 38 | 1012.5 |
| 20260502212520 | 18 | 293 | 14.5 | 27.4 | 0.00 | 0.00 | 0.00 | 39 | 1012.4 |
| 20260502212424 | 18 | 277 | 12.9 | 27.4 | 0.00 | 0.00 | 0.00 | 38 | 1012.5 |
| 20260502212348 | 18 | 280 | 16.1 | 27.4 | 0.00 | 0.00 | 0.00 | 38 | 1012.5 |
| 20260502212204 | 18 | 237 | 14.5 | 27.4 | 0.00 | 0.00 | 0.00 | 39 | 1012.6 |
| 20260502212113 | 18 | 251 | 9.7 | 17.7 | 0.00 | 0.00 | 0.00 | 41 | 1012.5 |
| 20260502212017 | 17 | 259 | 6.4 | 17.7 | 0.00 | 0.00 | 0.00 | 40 | 1012.5 |
| 20260502211921 | 17 | 290 | 6.4 | 17.7 | 0.00 | 0.00 | 0.00 | 42 | 1012.5 |
| 20260502211825 | 17 | 288 | 6.4 | 19.3 | 0.00 | 0.00 | 0.00 | 40 | 1012.5 |
| 20260502211749 | 17 | 321 | 8.0 | 19.3 | 0.00 | 0.00 | 0.00 | 41 | 1012.6 |
| 20260502211603 | 17 | 295 | 8.0 | 19.3 | 0.00 | 0.00 | 0.00 | 39 | 1012.6 |
| 20260502211507 | 17 | 300 | 11.3 | 22.5 | 0.00 | 0.00 | 0.00 | 39 | 1012.6 |
| 20260502211415 | 17 | 292 | 14.5 | 22.5 | 0.00 | 0.00 | 0.00 | 41 | 1012.6 |
| 20260502211319 | 17 | 290 | 14.5 | 32.2 | 0.00 | 0.00 | 0.00 | 40 | 1012.6 |
| 20260502211221 | 17 | 284 | 14.5 | 32.2 | 0.00 | 0.00 | 0.00 | 40 | 1012.7 |
| 20260502211106 | 17 | 281 | 14.5 | 32.2 | 0.00 | 0.00 | 0.00 | 39 | 1012.7 |
| 20260502211031 | 17 | 294 | 14.5 | 32.2 | 0.00 | 0.00 | 0.00 | 40 | 1012.7 |
| 20260502210912 | 17 | 280 | 12.9 | 32.2 | 0.00 | 0.00 | 0.00 | 40 | 1012.7 |
| 20260502210820 | 17 | 297 | 14.5 | 32.2 | 0.00 | 0.00 | 0.00 | 38 | 1012.8 |
| 20260502210724 | 17 | 271 | 17.7 | 32.2 | 0.00 | 0.00 | 0.00 | 38 | 1012.9 |
| 20260502210649 | 17 | 267 | 22.5 | 32.2 | 0.00 | 0.00 | 0.00 | 39 | 1012.9 |
| 20260502210504 | 17 | 279 | 22.5 | 30.6 | 0.00 | 0.00 | 0.00 | 39 | 1012.9 |
| 20260502210428 | 17 | 288 | 20.9 | 30.6 | 0.00 | 0.00 | 0.00 | 40 | 1012.8 |
| 20260502210305 | 18 | 349 | 17.7 | 25.7 | 0.00 | 0.00 | 0.00 | 40 | 1012.8 |
| 20260502210210 | 17 | 294 | 12.9 | 22.5 | 0.00 | 0.00 | 0.00 | 40 | 1012.9 |
| 20260502210119 | 17 | 304 | 11.3 | 20.9 | 0.00 | 0.00 | 0.00 | 43 | 1012.8 |
| 20260502210004 | 17 | 301 | 11.3 | 20.9 | 0.00 | 0.00 | 0.00 | 40 | 1012.9 |
| 20260502205928 | 17 | 348 | 9.7 | 20.9 | 0.00 | 0.00 | 0.00 | 40 | 1012.9 |
| 20260502205805 | 17 | 313 | 9.7 | 20.9 | 0.00 | 0.00 | 0.00 | 40 | 1013.0 |
| 20260502205711 | 17 | 23 | 9.7 | 22.5 | 0.00 | 0.00 | 0.00 | 41 | 1013.0 |
| 20260502205635 | 17 | 327 | 9.7 | 24.1 | 0.00 | 0.00 | 0.00 | 39 | 1012.8 |
| 20260502205522 | 17 | 311 | 12.9 | 32.2 | 0.00 | 0.00 | 0.00 | 39 | 1013.0 |
| 20260502205426 | 17 | 275 | 16.1 | 32.2 | 0.00 | 0.00 | 0.00 | 38 | 1013.0 |
| 20260502205349 | 17 | 289 | 16.1 | 32.2 | 0.00 | 0.00 | 0.00 | 40 | 1013.0 |
| 20260502205205 | 17 | 284 | 16.1 | 32.2 | 0.00 | 0.00 | 0.00 | 40 | 1013.0 |
| 20260502205129 | 17 | 308 | 16.1 | 32.2 | 0.00 | 0.00 | 0.00 | 40 | 1013.0 |
| 20260502205031 | 17 | 300 | 16.1 | 32.2 | 0.00 | 0.00 | 0.00 | 41 | 1013.0 |
| 20260502204914 | 17 | 268 | 17.7 | 32.2 | 0.00 | 0.00 | 0.00 | 38 | 1013.1 |
| 20260502204818 | 17 | 302 | 20.9 | 32.2 | 0.00 | 0.00 | 0.00 | 39 | 1013.2 |
| 20260502204726 | 17 | 252 | 20.9 | 32.2 | 0.00 | 0.00 | 0.00 | 38 | 1013.1 |
| 20260502204603 | 17 | 295 | 17.7 | 25.7 | 0.00 | 0.00 | 0.00 | 37 | 1013.2 |
| 20260502204528 | 17 | 293 | 17.7 | 27.4 | 0.00 | 0.00 | 0.00 | 41 | 1013.3 |
| 20260502204404 | 17 | 321 | 16.1 | 29.0 | 0.00 | 0.00 | 0.00 | 40 | 1013.3 |
| 20260502204309 | 17 | 319 | 17.7 | 29.0 | 0.00 | 0.00 | 0.00 | 38 | 1013.3 |
| 20260502204213 | 17 | 298 | 17.7 | 29.0 | 0.00 | 0.00 | 0.00 | 38 | 1013.2 |
| 20260502204121 | 17 | 311 | 14.5 | 29.0 | 0.00 | 0.00 | 0.00 | 39 | 1013.3 |
| 20260502204004 | 17 | 315 | 14.5 | 29.0 | 0.00 | 0.00 | 0.00 | 41 | 1013.4 |
| 20260502203928 | 17 | 324 | 16.1 | 29.0 | 0.00 | 0.00 | 0.00 | 38 | 1013.4 |
| 20260502203805 | 17 | 279 | 22.5 | 29.0 | 0.00 | 0.00 | 0.00 | 40 | 1013.5 |
| 20260502203708 | 18 | 294 | 22.5 | 29.0 | 0.00 | 0.00 | 0.00 | 38 | 1013.4 |
| 20260502203612 | 18 | 269 | 16.1 | 29.0 | 0.00 | 0.00 | 0.00 | 40 | 1013.5 |
| 20260502203519 | 18 | 327 | 12.9 | 24.1 | 0.00 | 0.00 | 0.00 | 41 | 1013.5 |
| 20260502203422 | 17 | 302 | 12.9 | 25.7 | 0.00 | 0.00 | 0.00 | 39 | 1013.5 |
| 20260502203306 | 17 | 315 | 16.1 | 30.6 | 0.00 | 0.00 | 0.00 | 38 | 1013.6 |
| 20260502203210 | 17 | 303 | 14.5 | 30.6 | 0.00 | 0.00 | 0.00 | 40 | 1013.5 |
| 20260502203115 | 17 | 254 | 9.7 | 30.6 | 0.00 | 0.00 | 0.00 | 43 | 1013.6 |
| 20260502203039 | 17 | 249 | 11.3 | 30.6 | 0.00 | 0.00 | 0.00 | 41 | 1013.6 |
| 20260502202906 | 17 | 271 | 12.9 | 30.6 | 0.00 | 0.00 | 0.00 | 40 | 1013.6 |
| 20260502202811 | 17 | 264 | 14.5 | 30.6 | 0.00 | 0.00 | 0.00 | 38 | 1013.6 |
| 20260502202736 | 17 | 185 | 16.1 | 30.6 | 0.00 | 0.00 | 0.00 | 37 | 1013.6 |
| 20260502202621 | 17 | 232 | 19.3 | 30.6 | 0.00 | 0.00 | 0.00 | 38 | 1013.7 |
| 20260502202505 | 17 | 277 | 16.1 | 30.6 | 0.00 | 0.00 | 0.00 | 38 | 1013.8 |
| 20260502202429 | 17 | 232 | 14.5 | 24.1 | 0.00 | 0.00 | 0.00 | 40 | 1013.7 |
| 20260502202312 | 17 | 259 | 16.1 | 24.1 | 0.00 | 0.00 | 0.00 | 40 | 1013.7 |
| 20260502202221 | 17 | 295 | 17.7 | 24.1 | 0.00 | 0.00 | 0.00 | 40 | 1013.9 |
| 20260502202144 | 17 | 271 | 17.7 | 24.1 | 0.00 | 0.00 | 0.00 | 40 | 1013.8 |
| 20260502202006 | 17 | 297 | 16.1 | 24.1 | 0.00 | 0.00 | 0.00 | 40 | 1014.0 |
| 20260502201910 | 17 | 296 | 14.5 | 22.5 | 0.00 | 0.00 | 0.00 | 39 | 1013.9 |
| 20260502201814 | 17 | 321 | 12.9 | 33.8 | 0.00 | 0.00 | 0.00 | 39 | 1014.0 |
| 20260502201718 | 17 | 295 | 11.3 | 33.8 | 0.00 | 0.00 | 0.00 | 39 | 1014.0 |
| 20260502201626 | 17 | 311 | 14.5 | 33.8 | 0.00 | 0.00 | 0.00 | 40 | 1014.0 |
| 20260502201503 | 17 | 279 | 16.1 | 33.8 | 0.00 | 0.00 | 0.00 | 40 | 1014.0 |
| 20260502201426 | 17 | 297 | 14.5 | 33.8 | 0.00 | 0.00 | 0.00 | 41 | 1014.0 |
| 20260502201303 | 17 | 309 | 12.9 | 33.8 | 0.00 | 0.00 | 0.00 | 42 | 1014.0 |
| 20260502201206 | 17 | 290 | 14.5 | 33.8 | 0.00 | 0.00 | 0.00 | 40 | 1014.0 |
| 20260502201129 | 17 | 239 | 19.3 | 33.8 | 0.00 | 0.00 | 0.00 | 39 | 1014.0 |
| 20260502201012 | 17 | 254 | 17.7 | 33.8 | 0.00 | 0.00 | 0.00 | 39 | 1014.0 |
| 20260502200920 | 17 | 293 | 11.3 | 30.6 | 0.00 | 0.00 | 0.00 | 39 | 1014.1 |
| 20260502200803 | 16 | 307 | 8.0 | 29.0 | 0.00 | 0.00 | 0.00 | 40 | 1014.1 |
| 20260502200727 | 16 | 283 | 12.9 | 29.0 | 0.00 | 0.00 | 0.00 | 38 | 1014.2 |
| 20260502200630 | 16 | 265 | 17.7 | 30.6 | 0.00 | 0.00 | 0.00 | 38 | 1014.2 |
| 20260502200513 | 16 | 285 | 19.3 | 30.6 | 0.00 | 0.00 | 0.00 | 38 | 1014.2 |
| 20260502200416 | 17 | 283 | 20.9 | 32.2 | 0.00 | 0.00 | 0.00 | 38 | 1014.2 |
| 20260502200304 | 17 | 273 | 20.9 | 32.2 | 0.00 | 0.00 | 0.00 | 39 | 1014.3 |
| 20260502200228 | 17 | 274 | 20.9 | 32.2 | 0.00 | 0.00 | 0.00 | 39 | 1014.3 |
| 20260502200130 | 17 | 286 | 20.9 | 32.2 | 0.00 | 0.00 | 0.00 | 41 | 1014.2 |
| 20260502200012 | 17 | 296 | 20.9 | 32.2 | 0.00 | 0.00 | 0.00 | 38 | 1014.3 |
| 20260502195916 | 17 | 273 | 22.5 | 32.2 | 0.00 | 0.00 | 0.00 | 39 | 1014.3 |
| 20260502195820 | 17 | 282 | 24.1 | 32.2 | 0.00 | 0.00 | 0.00 | 39 | 1014.3 |
| 20260502195743 | 17 | 279 | 24.1 | 32.2 | 0.00 | 0.00 | 0.00 | 42 | 1014.3 |
| 20260502195606 | 17 | 281 | 12.9 | 32.2 | 0.00 | 0.00 | 0.00 | 39 | 1014.2 |
| 20260502195515 | 17 | 304 | 9.7 | 32.2 | 0.00 | 0.00 | 0.00 | 40 | 1014.4 |
| 20260502195439 | 17 | 243 | 11.3 | 32.2 | 0.00 | 0.00 | 0.00 | 38 | 1014.3 |
| 20260502195342 | 17 | 278 | 14.5 | 32.2 | 0.00 | 0.00 | 0.00 | 39 | 1014.4 |
| 20260502195225 | 17 | 282 | 17.7 | 32.2 | 0.00 | 0.00 | 0.00 | 40 | 1014.4 |
| 20260502195108 | 17 | 277 | 17.7 | 32.2 | 0.00 | 0.00 | 0.00 | 43 | 1014.4 |
| 20260502195010 | 17 | 269 | 12.9 | 17.7 | 0.00 | 0.00 | 0.00 | 41 | 1014.4 |
| 20260502194914 | 16 | 270 | 12.9 | 17.7 | 0.00 | 0.00 | 0.00 | 39 | 1014.4 |
| 20260502194838 | 16 | 232 | 12.9 | 19.3 | 0.00 | 0.00 | 0.00 | 43 | 1014.4 |
| 20260502194706 | 16 | 270 | 14.5 | 19.3 | 0.00 | 0.00 | 0.00 | 41 | 1014.4 |
| 20260502194611 | 16 | 213 | 12.9 | 19.3 | 0.00 | 0.00 | 0.00 | 41 | 1014.4 |
| 20260502194513 | 16 | 290 | 11.3 | 17.7 | 0.00 | 0.00 | 0.00 | 43 | 1014.5 |
| 20260502194437 | 16 | 304 | 12.9 | 20.9 | 0.00 | 0.00 | 0.00 | 42 | 1014.4 |
| 20260502194320 | 16 | 234 | 12.9 | 22.5 | 0.00 | 0.00 | 0.00 | 38 | 1014.5 |
| 20260502194204 | 16 | 259 | 14.5 | 22.5 | 0.00 | 0.00 | 0.00 | 39 | 1014.6 |
| 20260502194132 | 16 | 239 | 12.9 | 22.5 | 0.00 | 0.00 | 0.00 | 40 | 1014.6 |
| 20260502194015 | 16 | 247 | 9.7 | 22.5 | 0.00 | 0.00 | 0.00 | 41 | 1014.6 |
| 20260502193919 | 16 | 215 | 6.4 | 24.1 | 0.00 | 0.00 | 0.00 | 44 | 1014.5 |
| 20260502193823 | 16 | 261 | 8.0 | 24.1 | 0.00 | 0.00 | 0.00 | 42 | 1014.7 |
| 20260502193706 | 16 | 262 | 14.5 | 41.8 | 0.00 | 0.00 | 0.00 | 39 | 1014.6 |
| 20260502193630 | 16 | 259 | 17.7 | 41.8 | 0.00 | 0.00 | 0.00 | 40 | 1014.6 |
| 20260502193513 | 16 | 282 | 16.1 | 41.8 | 0.00 | 0.00 | 0.00 | 40 | 1014.6 |
| 20260502193440 | 16 | 293 | 14.5 | 41.8 | 0.00 | 0.00 | 0.00 | 40 | 1014.7 |
| 20260502193342 | 16 | 302 | 16.1 | 41.8 | 0.00 | 0.00 | 0.00 | 42 | 1014.7 |
| 20260502193225 | 16 | 324 | 16.1 | 41.8 | 0.00 | 0.00 | 0.00 | 41 | 1014.7 |
| 20260502193107 | 16 | 313 | 19.3 | 41.8 | 0.00 | 0.00 | 0.00 | 43 | 1014.7 |
| 20260502193012 | 16 | 290 | 22.5 | 41.8 | 0.00 | 0.00 | 0.00 | 40 | 1014.8 |
| 20260502192915 | 16 | 314 | 20.9 | 41.8 | 0.00 | 0.00 | 0.00 | 39 | 1014.7 |
| 20260502192819 | 16 | 236 | 17.7 | 29.0 | 0.00 | 0.00 | 0.00 | 40 | 1014.6 |
| 20260502192728 | 16 | 196 | 14.5 | 25.7 | 0.00 | 0.00 | 0.00 | 39 | 1014.7 |
| 20260502192605 | 16 | 229 | 11.3 | 25.7 | 0.00 | 0.00 | 0.00 | 40 | 1014.8 |
| 20260502192508 | 16 | 238 | 12.9 | 25.7 | 0.00 | 0.00 | 0.00 | 38 | 1014.9 |
| 20260502192411 | 16 | 229 | 17.7 | 25.7 | 0.00 | 0.00 | 0.00 | 39 | 1014.9 |
| 20260502192315 | 16 | 252 | 19.3 | 25.7 | 0.00 | 0.00 | 0.00 | 39 | 1014.9 |
| 20260502192239 | 16 | 291 | 20.9 | 25.7 | 0.00 | 0.00 | 0.00 | 42 | 1014.9 |
| 20260502192104 | 16 | 275 | 16.1 | 25.7 | 0.00 | 0.00 | 0.00 | 40 | 1014.9 |
| 20260502192007 | 16 | 306 | 11.3 | 22.5 | 0.00 | 0.00 | 0.00 | 41 | 1015.0 |
| 20260502191911 | 16 | 309 | 11.3 | 22.5 | 0.00 | 0.00 | 0.00 | 41 | 1015.0 |
| 20260502191813 | 16 | 284 | 14.5 | 22.5 | 0.00 | 0.00 | 0.00 | 40 | 1015.1 |
| 20260502191717 | 16 | 286 | 17.7 | 22.5 | 0.00 | 0.00 | 0.00 | 39 | 1015.1 |
| 20260502191620 | 16 | 302 | 17.7 | 22.5 | 0.00 | 0.00 | 0.00 | 40 | 1015.1 |
| 20260502191543 | 16 | 292 | 17.7 | 27.4 | 0.00 | 0.00 | 0.00 | 40 | 1015.1 |
| 20260502191429 | 16 | 275 | 14.5 | 27.4 | 0.00 | 0.00 | 0.00 | 42 | 1015.0 |
| 20260502191304 | 16 | 289 | 11.3 | 27.4 | 0.00 | 0.00 | 0.00 | 40 | 1015.1 |
| 20260502191228 | 16 | 250 | 11.3 | 27.4 | 0.00 | 0.00 | 0.00 | 40 | 1015.1 |
| 20260502191104 | 16 | 317 | 11.3 | 27.4 | 0.00 | 0.00 | 0.00 | 41 | 1015.1 |
| 20260502191006 | 16 | 336 | 11.3 | 27.4 | 0.00 | 0.00 | 0.00 | 44 | 1015.2 |
| 20260502190930 | 16 | 286 | 16.1 | 27.4 | 0.00 | 0.00 | 0.00 | 41 | 1015.2 |
| 20260502190811 | 16 | 329 | 17.7 | 27.4 | 0.00 | 0.00 | 0.00 | 45 | 1015.3 |
| 20260502190719 | 16 | 309 | 16.1 | 27.4 | 0.00 | 0.00 | 0.00 | 40 | 1015.2 |
| 20260502190641 | 16 | 237 | 11.3 | 24.1 | 0.00 | 0.00 | 0.00 | 41 | 1015.3 |
| 20260502190524 | 16 | 267 | 12.9 | 24.1 | 0.00 | 0.00 | 0.00 | 39 | 1015.3 |
| 20260502190406 | 16 | 276 | 14.5 | 24.1 | 0.00 | 0.00 | 0.00 | 41 | 1015.3 |
| 20260502190330 | 15 | 288 | 12.9 | 24.1 | 0.00 | 0.00 | 0.00 | 40 | 1015.4 |
| 20260502190232 | 15 | 239 | 12.9 | 24.1 | 0.00 | 0.00 | 0.00 | 40 | 1015.3 |
| 20260502190114 | 15 | 256 | 12.9 | 24.1 | 0.00 | 0.00 | 0.00 | 41 | 1015.4 |
| 20260502190017 | 15 | 247 | 14.5 | 24.1 | 0.00 | 0.00 | 0.00 | 40 | 1015.4 |
| 20260502185926 | 15 | 272 | 16.1 | 24.1 | 0.00 | 0.00 | 0.00 | 41 | 1015.5 |
| 20260502185849 | 15 | 277 | 17.7 | 24.1 | 0.00 | 0.00 | 0.00 | 42 | 1015.4 |
| 20260502185704 | 15 | 312 | 12.9 | 22.5 | 0.00 | 0.00 | 0.00 | 41 | 1015.5 |
| 20260502185607 | 15 | 309 | 11.3 | 22.5 | 0.00 | 0.00 | 0.00 | 41 | 1015.5 |
| 20260502185510 | 15 | 266 | 12.9 | 22.5 | 0.00 | 0.00 | 0.00 | 40 | 1015.5 |
| 20260502185413 | 15 | 303 | 14.5 | 22.5 | 0.00 | 0.00 | 0.00 | 42 | 1015.5 |
| 20260502185319 | 15 | 306 | 16.1 | 24.1 | 0.00 | 0.00 | 0.00 | 40 | 1015.5 |
| 20260502185222 | 16 | 247 | 14.5 | 25.7 | 0.00 | 0.00 | 0.00 | 41 | 1015.5 |
| 20260502185126 | 16 | 243 | 8.0 | 25.7 | 0.00 | 0.00 | 0.00 | 43 | 1015.6 |
| 20260502185008 | 16 | 276 | 9.7 | 25.7 | 0.00 | 0.00 | 0.00 | 43 | 1015.6 |
| 20260502184911 | 15 | 251 | 14.5 | 25.7 | 0.00 | 0.00 | 0.00 | 40 | 1015.6 |
| 20260502184814 | 15 | 269 | 16.1 | 25.7 | 0.00 | 0.00 | 0.00 | 41 | 1015.6 |
| 20260502184717 | 15 | 282 | 16.1 | 25.7 | 0.00 | 0.00 | 0.00 | 42 | 1015.6 |
| 20260502184604 | 16 | 294 | 17.7 | 25.7 | 0.00 | 0.00 | 0.00 | 41 | 1015.7 |
| 20260502184527 | 16 | 300 | 16.1 | 25.7 | 0.00 | 0.00 | 0.00 | 41 | 1015.7 |
| 20260502184409 | 16 | 296 | 11.3 | 24.1 | 0.00 | 0.00 | 0.00 | 42 | 1015.6 |
| 20260502184312 | 16 | 274 | 9.7 | 24.1 | 0.00 | 0.00 | 0.00 | 41 | 1015.6 |
| 20260502184216 | 16 | 295 | 12.9 | 24.1 | 0.00 | 0.00 | 0.00 | 42 | 1015.7 |
| 20260502184118 | 16 | 290 | 14.5 | 24.1 | 0.00 | 0.00 | 0.00 | 42 | 1015.7 |
| 20260502184004 | 16 | 298 | 14.5 | 24.1 | 0.00 | 0.00 | 0.00 | 43 | 1015.8 |
| 20260502183927 | 15 | 259 | 11.3 | 24.1 | 0.00 | 0.00 | 0.00 | 41 | 1015.7 |
| 20260502183828 | 15 | 234 | 12.9 | 24.1 | 0.00 | 0.00 | 0.00 | 42 | 1015.7 |
| 20260502183704 | 15 | 262 | 14.5 | 24.1 | 0.00 | 0.00 | 0.00 | 40 | 1015.9 |
| 20260502183607 | 15 | 277 | 14.5 | 25.7 | 0.00 | 0.00 | 0.00 | 42 | 1015.8 |
| 20260502183510 | 15 | 279 | 12.9 | 29.0 | 0.00 | 0.00 | 0.00 | 44 | 1015.8 |
| 20260502183414 | 15 | 296 | 12.9 | 29.0 | 0.00 | 0.00 | 0.00 | 43 | 1015.9 |
| 20260502183340 | 15 | 286 | 16.1 | 29.0 | 0.00 | 0.00 | 0.00 | 42 | 1015.9 |
| 20260502183203 | 15 | 309 | 12.9 | 29.0 | 0.00 | 0.00 | 0.00 | 42 | 1015.9 |
| 20260502183029 | 15 | 287 | 17.7 | 29.0 | 0.00 | 0.00 | 0.00 | 39 | 1016.0 |
| 20260502182932 | 15 | 267 | 19.3 | 29.0 | 0.00 | 0.00 | 0.00 | 40 | 1015.9 |
| 20260502182814 | 15 | 269 | 20.9 | 29.0 | 0.00 | 0.00 | 0.00 | 42 | 1016.0 |
| 20260502182717 | 15 | 285 | 14.5 | 29.0 | 0.00 | 0.00 | 0.00 | 42 | 1016.0 |
| 20260502182604 | 15 | 295 | 8.0 | 25.7 | 0.00 | 0.00 | 0.00 | 42 | 1016.0 |
| 20260502182528 | 15 | 252 | 11.3 | 25.7 | 0.00 | 0.00 | 0.00 | 40 | 1015.9 |
| 20260502182451 | 15 | 254 | 12.9 | 25.7 | 0.00 | 0.00 | 0.00 | 43 | 1016.1 |
| 20260502182305 | 15 | 259 | 11.3 | 25.7 | 0.00 | 0.00 | 0.00 | 41 | 1016.1 |
| 20260502182209 | 15 | 283 | 12.9 | 25.7 | 0.00 | 0.00 | 0.00 | 41 | 1016.1 |
| 20260502182112 | 15 | 312 | 14.5 | 25.7 | 0.00 | 0.00 | 0.00 | 43 | 1016.1 |
| 20260502182036 | 15 | 293 | 17.7 | 25.7 | 0.00 | 0.00 | 0.00 | 43 | 1016.1 |
| 20260502181921 | 15 | 292 | 19.3 | 27.4 | 0.00 | 0.00 | 0.00 | 43 | 1016.1 |
| 20260502181824 | 15 | 329 | 19.3 | 29.0 | 0.00 | 0.00 | 0.00 | 41 | 1016.1 |
| 20260502181727 | 15 | 315 | 17.7 | 29.0 | 0.00 | 0.00 | 0.00 | 40 | 1016.2 |
| 20260502181629 | 15 | 294 | 14.5 | 29.0 | 0.00 | 0.00 | 0.00 | 40 | 1016.2 |
| 20260502181506 | 15 | 290 | 12.9 | 29.0 | 0.00 | 0.00 | 0.00 | 43 | 1016.2 |
| 20260502181428 | 15 | 302 | 11.3 | 29.0 | 0.00 | 0.00 | 0.00 | 43 | 1016.2 |
| 20260502181331 | 15 | 300 | 11.3 | 29.0 | 0.00 | 0.00 | 0.00 | 43 | 1016.3 |
| 20260502181233 | 15 | 286 | 17.7 | 29.0 | 0.00 | 0.00 | 0.00 | 44 | 1016.2 |
| 20260502181115 | 15 | 275 | 17.7 | 29.0 | 0.00 | 0.00 | 0.00 | 43 | 1016.2 |
| 20260502181021 | 15 | 279 | 14.5 | 29.0 | 0.00 | 0.00 | 0.00 | 43 | 1016.2 |
| 20260502180925 | 15 | 293 | 11.3 | 24.1 | 0.00 | 0.00 | 0.00 | 47 | 1016.3 |
| 20260502180827 | 15 | 279 | 11.3 | 24.1 | 0.00 | 0.00 | 0.00 | 45 | 1016.2 |
| 20260502180703 | 15 | 304 | 6.4 | 25.7 | 0.00 | 0.00 | 0.00 | 43 | 1016.2 |
| 20260502180607 | 14 | 276 | 4.8 | 25.7 | 0.00 | 0.00 | 0.00 | 46 | 1016.3 |
| 20260502180509 | 14 | 271 | 11.3 | 29.0 | 0.00 | 0.00 | 0.00 | 43 | 1016.3 |
| 20260502180432 | 14 | 270 | 17.7 | 29.0 | 0.00 | 0.00 | 0.00 | 42 | 1016.4 |
| 20260502180318 | 14 | 301 | 16.1 | 29.0 | 0.00 | 0.00 | 0.00 | 44 | 1016.4 |
| 20260502180221 | 14 | 311 | 12.9 | 29.0 | 0.00 | 0.00 | 0.00 | 41 | 1016.5 |
| 20260502180125 | 14 | 315 | 14.5 | 29.0 | 0.00 | 0.00 | 0.00 | 43 | 1016.5 |
| 20260502170513 | 13 | 302 | 12.9 | 25.7 | 0.00 | 0.00 | 0.00 | 43 | 1017.4 |
| 20260502170418 | 13 | 286 | 9.7 | 25.7 | 0.00 | 0.00 | 0.00 | 45 | 1017.4 |
| 20260502170304 | 13 | 9 | 4.8 | 20.9 | 0.00 | 0.00 | 0.00 | 44 | 1017.4 |
| 20260502170228 | 13 | 315 | 6.4 | 20.9 | 0.00 | 0.00 | 0.00 | 43 | 1017.5 |
| 20260502170105 | 13 | 288 | 8.0 | 25.7 | 0.00 | 0.00 | 0.00 | 43 | 1017.5 |
| 20260502164318 | 13 | 245 | 14.5 | 24.1 | 0.00 | 0.00 | 0.00 | 42 | 1017.7 |
| 20260502164221 | 13 | 319 | 14.5 | 25.7 | 0.00 | 0.00 | 0.00 | 43 | 1017.7 |
| 20260502164106 | 13 | 288 | 12.9 | 25.7 | 0.00 | 0.00 | 0.00 | 45 | 1017.7 |
| 20260502164030 | 13 | 307 | 9.7 | 25.7 | 0.00 | 0.00 | 0.00 | 45 | 1017.7 |
| 20260502163912 | 13 | 275 | 11.3 | 25.7 | 0.00 | 0.00 | 0.00 | 42 | 1017.8 |
| 20260502163816 | 13 | 298 | 12.9 | 25.7 | 0.00 | 0.00 | 0.00 | 43 | 1017.7 |
| 20260502163724 | 13 | 283 | 12.9 | 25.7 | 0.00 | 0.00 | 0.00 | 45 | 1017.8 |
| 20260502163649 | 13 | 332 | 14.5 | 25.7 | 0.00 | 0.00 | 0.00 | 45 | 1017.8 |
| 20260502163504 | 13 | 279 | 17.7 | 25.7 | 0.00 | 0.00 | 0.00 | 43 | 1017.7 |
| 20260502163408 | 13 | 293 | 17.7 | 25.7 | 0.00 | 0.00 | 0.00 | 43 | 1017.9 |
| 20260502163314 | 13 | 292 | 12.9 | 25.7 | 0.00 | 0.00 | 0.00 | 42 | 1017.9 |
| 20260502163217 | 13 | 275 | 16.1 | 25.7 | 0.00 | 0.00 | 0.00 | 43 | 1017.9 |
| 20260502163105 | 13 | 304 | 19.3 | 25.7 | 0.00 | 0.00 | 0.00 | 45 | 1017.9 |
| 20260502163028 | 13 | 288 | 17.7 | 24.1 | 0.00 | 0.00 | 0.00 | 45 | 1017.8 |
| 20260502162905 | 13 | 306 | 14.5 | 24.1 | 0.00 | 0.00 | 0.00 | 45 | 1017.9 |
| 20260502162809 | 13 | 298 | 12.9 | 25.7 | 0.00 | 0.00 | 0.00 | 43 | 1017.9 |
| 20260502162734 | 13 | 302 | 9.7 | 25.7 | 0.00 | 0.00 | 0.00 | 44 | 1017.9 |
| 20260502162634 | 13 | 333 | 8.0 | 25.7 | 0.00 | 0.00 | 0.00 | 44 | 1017.9 |
| 20260502162517 | 13 | 325 | 8.0 | 25.7 | 0.00 | 0.00 | 0.00 | 43 | 1018.0 |
| 20260502162442 | 13 | 335 | 9.7 | 25.7 | 0.00 | 0.00 | 0.00 | 43 | 1018.0 |
| 20260502162327 | 13 | 344 | 12.9 | 25.7 | 0.00 | 0.00 | 0.00 | 44 | 1018.0 |
| 20260502162205 | 13 | 360 | 17.7 | 25.7 | 0.00 | 0.00 | 0.00 | 43 | 1018.0 |
| 20260502162109 | 13 | 335 | 19.3 | 25.7 | 0.00 | 0.00 | 0.00 | 44 | 1018.0 |
| 20260502162014 | 13 | 311 | 19.3 | 25.7 | 0.00 | 0.00 | 0.00 | 45 | 1018.0 |
| 20260502161916 | 13 | 308 | 14.5 | 22.5 | 0.00 | 0.00 | 0.00 | 46 | 1018.0 |
| 20260502161817 | 13 | 302 | 12.9 | 20.9 | 0.00 | 0.00 | 0.00 | 44 | 1018.0 |
| 20260502161706 | 13 | 338 | 14.5 | 20.9 | 0.00 | 0.00 | 0.00 | 44 | 1018.1 |
| 20260502161629 | 13 | 315 | 12.9 | 22.5 | 0.00 | 0.00 | 0.00 | 44 | 1018.1 |
| 20260502161505 | 13 | 296 | 9.7 | 22.5 | 0.00 | 0.00 | 0.00 | 44 | 1018.1 |
| 20260502161410 | 13 | 262 | 12.9 | 22.5 | 0.00 | 0.00 | 0.00 | 44 | 1018.2 |
| 20260502161333 | 13 | 270 | 14.5 | 22.5 | 0.00 | 0.00 | 0.00 | 45 | 1018.2 |
| 20260502161217 | 13 | 300 | 12.9 | 22.5 | 0.00 | 0.00 | 0.00 | 47 | 1018.0 |
| 20260502161120 | 13 | 275 | 9.7 | 22.5 | 0.00 | 0.00 | 0.00 | 48 | 1018.2 |
| 20260502161008 | 13 | 285 | 12.9 | 22.5 | 0.00 | 0.00 | 0.00 | 46 | 1018.2 |
| 20260502160911 | 12 | 305 | 14.5 | 22.5 | 0.00 | 0.00 | 0.00 | 44 | 1018.2 |
| 20260502160815 | 12 | 330 | 14.5 | 22.5 | 0.00 | 0.00 | 0.00 | 45 | 1018.2 |
| 20260502160718 | 12 | 325 | 14.5 | 19.3 | 0.00 | 0.00 | 0.00 | 45 | 1018.2 |
| 20260502160622 | 12 | 316 | 12.9 | 24.1 | 0.00 | 0.00 | 0.00 | 46 | 1018.2 |
| 20260502160510 | 12 | 282 | 14.5 | 25.7 | 0.00 | 0.00 | 0.00 | 46 | 1018.2 |
| 20260502160434 | 12 | 274 | 12.9 | 25.7 | 0.00 | 0.00 | 0.00 | 45 | 1018.2 |
| 20260502160317 | 12 | 286 | 9.7 | 25.7 | 0.00 | 0.00 | 0.00 | 45 | 1018.3 |
| 20260502160222 | 12 | 299 | 9.7 | 25.7 | 0.00 | 0.00 | 0.00 | 46 | 1018.3 |
| 20260502160105 | 12 | 301 | 8.0 | 25.7 | 0.00 | 0.00 | 0.00 | 46 | 1018.3 |
| 20260502152313 | 12 | 292 | 16.1 | 20.9 | 0.00 | 0.00 | 0.00 | 48 | 1018.6 |
| 20260502152238 | 12 | 292 | 14.5 | 20.9 | 0.00 | 0.00 | 0.00 | 48 | 1018.6 |
| 20260502152044 | 12 | 360 | 8.0 | 19.3 | 0.00 | 0.00 | 0.00 | 49 | 1018.7 |
| 20260502151910 | 12 | 355 | 4.8 | 20.9 | 0.00 | 0.00 | 0.00 | 48 | 1018.6 |
| 20260502151815 | 12 | 345 | 4.8 | 22.5 | 0.00 | 0.00 | 0.00 | 49 | 1018.7 |
| 20260502151719 | 12 | 306 | 6.4 | 22.5 | 0.00 | 0.00 | 0.00 | 48 | 1018.7 |
| 20260502151643 | 12 | 348 | 9.7 | 22.5 | 0.00 | 0.00 | 0.00 | 50 | 1018.7 |
| 20260502151527 | 12 | 296 | 12.9 | 22.5 | 0.00 | 0.00 | 0.00 | 48 | 1018.8 |
| 20260502151404 | 12 | 307 | 11.3 | 22.5 | 0.00 | 0.00 | 0.00 | 48 | 1018.8 |
| 20260502151307 | 12 | 296 | 9.7 | 22.5 | 0.00 | 0.00 | 0.00 | 50 | 1018.7 |
| 20260502151216 | 12 | 323 | 11.3 | 22.5 | 0.00 | 0.00 | 0.00 | 47 | 1018.7 |
| 20260502151121 | 11 | 342 | 14.5 | 22.5 | 0.00 | 0.00 | 0.00 | 48 | 1018.7 |
| 20260502151005 | 11 | 355 | 11.3 | 22.5 | 0.00 | 0.00 | 0.00 | 48 | 1018.7 |
| 20260502150909 | 11 | 23 | 8.0 | 19.3 | 0.00 | 0.00 | 0.00 | 50 | 1018.8 |
| 20260502150813 | 11 | 340 | 11.3 | 19.3 | 0.00 | 0.00 | 0.00 | 47 | 1018.7 |
| 20260502150718 | 11 | 348 | 14.5 | 19.3 | 0.00 | 0.00 | 0.00 | 47 | 1018.7 |
| 20260502150627 | 11 | 323 | 12.9 | 19.3 | 0.00 | 0.00 | 0.00 | 48 | 1018.8 |
| 20260502150504 | 11 | 328 | 11.3 | 17.7 | 0.00 | 0.00 | 0.00 | 48 | 1018.8 |
| 20260502150408 | 11 | 301 | 14.5 | 17.7 | 0.00 | 0.00 | 0.00 | 49 | 1018.7 |
| 20260502150332 | 11 | 300 | 12.9 | 17.7 | 0.00 | 0.00 | 0.00 | 48 | 1018.7 |
| 20260502150215 | 11 | 279 | 11.3 | 17.7 | 0.00 | 0.00 | 0.00 | 49 | 1018.8 |
| 20260502150120 | 11 | 290 | 14.5 | 17.7 | 0.00 | 0.00 | 0.00 | 49 | 1018.8 |
| 20260502140129 | 10 | 318 | 9.7 | 14.5 | 0.00 | 0.00 | 0.00 | 54 | 1019.1 |
| 20260502130706 | 7 | 321 | 6.4 | 14.5 | 0.00 | 0.00 | 0.00 | 65 | 1019.2 |
| 20260502130611 | 6 | 300 | 6.4 | 14.5 | 0.00 | 0.00 | 0.00 | 65 | 1019.1 |
| 20260502130515 | 6 | 323 | 6.4 | 14.5 | 0.00 | 0.00 | 0.00 | 66 | 1019.2 |
| 20260502130440 | 6 | 319 | 8.0 | 14.5 | 0.00 | 0.00 | 0.00 | 66 | 1019.2 |
| 20260502130307 | 6 | 318 | 9.7 | 14.5 | 0.00 | 0.00 | 0.00 | 67 | 1019.3 |
| 20260502130211 | 6 | 304 | 6.4 | 12.9 | 0.00 | 0.00 | 0.00 | 68 | 1019.2 |
| 20260502130116 | 6 | 300 | 4.8 | 12.9 | 0.00 | 0.00 | 0.00 | 68 | 1019.2 |
| 20260502123814 | 5 | 316 | 6.4 | 12.9 | 0.00 | 0.00 | 0.00 | 73 | 1019.2 |
| 20260502123737 | 5 | 310 | 6.4 | 12.9 | 0.00 | 0.00 | 0.00 | 74 | 1019.3 |
| 20260502123624 | 5 | 319 | 4.8 | 12.9 | 0.00 | 0.00 | 0.00 | 74 | 1019.3 |
| 20260502123507 | 5 | 313 | 4.8 | 12.9 | 0.00 | 0.00 | 0.00 | 74 | 1019.3 |
| 20260502123410 | 5 | 306 | 6.4 | 12.9 | 0.00 | 0.00 | 0.00 | 74 | 1019.3 |
| 20260502123333 | 5 | 300 | 6.4 | 12.9 | 0.00 | 0.00 | 0.00 | 75 | 1019.4 |
| 20260502123216 | 4 | 290 | 6.4 | 9.7 | 0.00 | 0.00 | 0.00 | 75 | 1019.3 |
| 20260502123119 | 4 | 311 | 6.4 | 9.7 | 0.00 | 0.00 | 0.00 | 76 | 1019.3 |
| 20260502123043 | 4 | 306 | 4.8 | 12.9 | 0.00 | 0.00 | 0.00 | 76 | 1019.2 |
| 20260502122907 | 4 | 313 | 6.4 | 12.9 | 0.00 | 0.00 | 0.00 | 77 | 1019.2 |
| 20260502122814 | 4 | 332 | 6.4 | 12.9 | 0.00 | 0.00 | 0.00 | 77 | 1019.2 |
| 20260502122718 | 4 | 302 | 6.4 | 12.9 | 0.00 | 0.00 | 0.00 | 77 | 1019.2 |
| 20260502122642 | 4 | 292 | 6.4 | 12.9 | 0.00 | 0.00 | 0.00 | 77 | 1019.3 |
| 20260502122504 | 3 | 304 | 6.4 | 12.9 | 0.00 | 0.00 | 0.00 | 78 | 1019.2 |
| 20260502122427 | 3 | 310 | 6.4 | 12.9 | 0.00 | 0.00 | 0.00 | 78 | 1019.2 |
| 20260502122306 | 3 | 338 | 6.4 | 12.9 | 0.00 | 0.00 | 0.00 | 78 | 1019.2 |
| 20260502122212 | 3 | 294 | 6.4 | 12.9 | 0.00 | 0.00 | 0.00 | 79 | 1019.2 |
| 20260502122117 | 3 | 298 | 4.8 | 8.0 | 0.00 | 0.00 | 0.00 | 80 | 1019.2 |
| 20260502122019 | 3 | 306 | 4.8 | 8.0 | 0.00 | 0.00 | 0.00 | 80 | 1019.2 |
| 20260502121903 | 3 | 308 | 4.8 | 8.0 | 0.00 | 0.00 | 0.00 | 81 | 1019.2 |
| 20260502121827 | 3 | 298 | 4.8 | 8.0 | 0.00 | 0.00 | 0.00 | 81 | 1019.2 |
| 20260502121704 | 3 | 311 | 6.4 | 8.0 | 0.00 | 0.00 | 0.00 | 81 | 1019.2 |
| 20260502121629 | 3 | 302 | 4.8 | 8.0 | 0.00 | 0.00 | 0.00 | 82 | 1019.2 |
| 20260502121516 | 3 | 280 | 4.8 | 8.0 | 0.00 | 0.00 | 0.00 | 82 | 1019.2 |
| 20260502121440 | 3 | 316 | 4.8 | 8.0 | 0.00 | 0.00 | 0.00 | 83 | 1019.2 |
| 20260502121322 | 3 | 288 | 4.8 | 6.4 | 0.00 | 0.00 | 0.00 | 83 | 1019.1 |
| 20260502121227 | 2 | 299 | 4.8 | 8.0 | 0.00 | 0.00 | 0.00 | 83 | 1019.1 |
| 20260502121130 | 2 | 294 | 4.8 | 8.0 | 0.00 | 0.00 | 0.00 | 84 | 1019.2 |
| 20260502121031 | 2 | 292 | 4.8 | 8.0 | 0.00 | 0.00 | 0.00 | 84 | 1019.1 |
| 20260502120935 | 2 | 302 | 4.8 | 8.0 | 0.00 | 0.00 | 0.00 | 84 | 1019.1 |
| 20260502120818 | 2 | 302 | 4.8 | 8.0 | 0.00 | 0.00 | 0.00 | 85 | 1019.1 |
| 20260502120727 | 2 | 298 | 4.8 | 8.0 | 0.00 | 0.00 | 0.00 | 85 | 1019.1 |
| 20260502120604 | 2 | 297 | 4.8 | 8.0 | 0.00 | 0.00 | 0.00 | 86 | 1019.1 |
| 20260502120527 | 2 | 295 | 4.8 | 8.0 | 0.00 | 0.00 | 0.00 | 86 | 1019.1 |
| 20260502120403 | 2 | 296 | 4.8 | 8.0 | 0.00 | 0.00 | 0.00 | 87 | 1019.2 |
| 20260502120306 | 2 | 288 | 4.8 | 6.4 | 0.00 | 0.00 | 0.00 | 88 | 1019.1 |
| 20260502120210 | 2 | 303 | 4.8 | 6.4 | 0.00 | 0.00 | 0.00 | 88 | 1019.1 |
| 20260502120112 | 1 | 304 | 4.8 | 6.4 | 0.00 | 0.00 | 0.00 | 88 | 1019.1 |
| 20260502115905 | 1 | 298 | 3.2 | 6.4 | 0.00 | 0.00 | 0.00 | 89 | 1019.0 |
| 20260502115809 | 1 | 298 | 4.8 | 6.4 | 0.00 | 0.00 | 0.00 | 89 | 1019.1 |
| 20260502115713 | 1 | 297 | 4.8 | 6.4 | 0.00 | 0.00 | 0.00 | 90 | 1019.1 |
| 20260502115616 | 1 | 296 | 4.8 | 8.0 | 0.00 | 0.00 | 0.00 | 90 | 1019.1 |
| 20260502115505 | 1 | 300 | 3.2 | 8.0 | 0.00 | 0.00 | 0.00 | 90 | 1019.1 |
| 20260502115430 | 1 | 300 | 3.2 | 8.0 | 0.00 | 0.00 | 0.00 | 90 | 1019.2 |
| 20260502115306 | 1 | 300 | 4.8 | 8.0 | 0.00 | 0.00 | 0.00 | 91 | 1019.1 |
| 20260502115230 | 1 | 296 | 4.8 | 8.0 | 0.00 | 0.00 | 0.00 | 91 | 1019.1 |
| 20260502115106 | 0 | 296 | 4.8 | 8.0 | 0.00 | 0.00 | 0.00 | 91 | 1019.2 |
| 20260502115010 | 0 | 296 | 4.8 | 8.0 | 0.00 | 0.00 | 0.00 | 91 | 1019.1 |
| 20260502114914 | 0 | 295 | 4.8 | 8.0 | 0.00 | 0.00 | 0.00 | 91 | 1019.1 |
| 20260502114821 | 0 | 296 | 3.2 | 8.0 | 0.00 | 0.00 | 0.00 | 91 | 1019.1 |
| 20260502114744 | 0 | 282 | 3.2 | 4.8 | 0.00 | 0.00 | 0.00 | 91 | 1019.1 |
| 20260502114626 | 0 | 282 | 3.2 | 4.8 | 0.00 | 0.00 | 0.00 | 91 | 1019.1 |
| 20260502114406 | 0 | 282 | 3.2 | 4.8 | 0.00 | 0.00 | 0.00 | 91 | 1019.1 |
| 20260502114310 | 0 | 283 | 3.2 | 4.8 | 0.00 | 0.00 | 0.00 | 91 | 1019.1 |
| 20260502114217 | 0 | 283 | 3.2 | 4.8 | 0.00 | 0.00 | 0.00 | 91 | 1019.1 |
| 20260502114119 | 0 | 283 | 3.2 | 4.8 | 0.00 | 0.00 | 0.00 | 91 | 1019.1 |
| 20260502114022 | 0 | 283 | 3.2 | 4.8 | 0.00 | 0.00 | 0.00 | 91 | 1019.2 |
| 20260502113925 | 0 | 283 | 3.2 | 4.8 | 0.00 | 0.00 | 0.00 | 91 | 1019.2 |
| 20260502113807 | 0 | 283 | 3.2 | 4.8 | 0.00 | 0.00 | 0.00 | 91 | 1019.1 |
| 20260502113712 | 0 | 283 | 3.2 | 4.8 | 0.00 | 0.00 | 0.00 | 91 | 1019.2 |
| 20260502113614 | 0 | 282 | 3.2 | 4.8 | 0.00 | 0.00 | 0.00 | 91 | 1019.1 |
| 20260502113521 | 0 | 282 | 3.2 | 4.8 | 0.00 | 0.00 | 0.00 | 91 | 1019.1 |
| 20260502113424 | -1 | 282 | 3.2 | 4.8 | 0.00 | 0.00 | 0.00 | 91 | 1019.2 |
| 20260502113308 | -1 | 284 | 3.2 | 4.8 | 0.00 | 0.00 | 0.00 | 91 | 1019.1 |
| 20260502113212 | -1 | 284 | 3.2 | 4.8 | 0.00 | 0.00 | 0.00 | 91 | 1019.1 |
| 20260502113114 | -1 | 284 | 3.2 | 4.8 | 0.00 | 0.00 | 0.00 | 91 | 1019.1 |
| 20260502113038 | -1 | 284 | 3.2 | 4.8 | 0.00 | 0.00 | 0.00 | 90 | 1019.1 |
| 20260502112917 | -1 | 284 | 3.2 | 4.8 | 0.00 | 0.00 | 0.00 | 90 | 1019.1 |
| 20260502112821 | -1 | 284 | 3.2 | 4.8 | 0.00 | 0.00 | 0.00 | 90 | 1019.1 |
| 20260502112721 | -1 | 284 | 3.2 | 4.8 | 0.00 | 0.00 | 0.00 | 90 | 1019.1 |
| 20260502112622 | -1 | 284 | 3.2 | 4.8 | 0.00 | 0.00 | 0.00 | 90 | 1019.1 |
| 20260502112543 | -1 | 284 | 3.2 | 4.8 | 0.00 | 0.00 | 0.00 | 90 | 1019.0 |
| 20260502112422 | -1 | 284 | 3.2 | 4.8 | 0.00 | 0.00 | 0.00 | 90 | 1019.1 |
| 20260502112323 | -1 | 284 | 3.2 | 6.4 | 0.00 | 0.00 | 0.00 | 89 | 1019.0 |
| 20260502112244 | -1 | 284 | 3.2 | 6.4 | 0.00 | 0.00 | 0.00 | 89 | 1019.1 |
| 20260502112107 | -1 | 284 | 3.2 | 6.4 | 0.00 | 0.00 | 0.00 | 89 | 1019.0 |
| 20260502112011 | -1 | 284 | 3.2 | 6.4 | 0.00 | 0.00 | 0.00 | 90 | 1019.1 |
| 20260502111912 | -1 | 284 | 3.2 | 6.4 | 0.00 | 0.00 | 0.00 | 90 | 1019.0 |
| 20260502111812 | -1 | 284 | 1.6 | 6.4 | 0.00 | 0.00 | 0.00 | 90 | 1019.0 |
| 20260502111713 | -1 | 283 | 3.2 | 6.4 | 0.00 | 0.00 | 0.00 | 90 | 1019.0 |
| 20260502111634 | -1 | 283 | 3.2 | 6.4 | 0.00 | 0.00 | 0.00 | 89 | 1019.0 |
| 20260502111517 | -1 | 283 | 3.2 | 6.4 | 0.00 | 0.00 | 0.00 | 89 | 1019.0 |
| 20260502111425 | -1 | 283 | 3.2 | 4.8 | 0.00 | 0.00 | 0.00 | 89 | 1019.0 |
| 20260502111350 | -1 | 282 | 3.2 | 4.8 | 0.00 | 0.00 | 0.00 | 89 | 1019.0 |
| 20260502111205 | -1 | 282 | 1.6 | 4.8 | 0.00 | 0.00 | 0.00 | 89 | 1018.9 |
| 20260502111130 | -1 | 282 | 1.6 | 4.8 | 0.00 | 0.00 | 0.00 | 89 | 1018.9 |
| 20260502111006 | -1 | 282 | 0.0 | 4.8 | 0.00 | 0.00 | 0.00 | 89 | 1018.9 |
| 20260502110930 | -1 | 282 | 0.0 | 4.8 | 0.00 | 0.00 | 0.00 | 89 | 1018.9 |
| 20260502110815 | -1 | 282 | 0.0 | 4.8 | 0.00 | 0.00 | 0.00 | 89 | 1018.8 |
| 20260502110703 | -1 | 282 | 1.6 | 4.8 | 0.00 | 0.00 | 0.00 | 89 | 1018.9 |
| 20260502110626 | -1 | 282 | 1.6 | 4.8 | 0.00 | 0.00 | 0.00 | 89 | 1018.8 |
| 20260502110503 | -1 | 282 | 1.6 | 4.8 | 0.00 | 0.00 | 0.00 | 89 | 1018.9 |
| 20260502110428 | -1 | 282 | 3.2 | 4.8 | 0.00 | 0.00 | 0.00 | 89 | 1018.9 |
| 20260502110309 | -1 | 282 | 1.6 | 4.8 | 0.00 | 0.00 | 0.00 | 89 | 1019.0 |
| 20260502110212 | -1 | 282 | 3.2 | 4.8 | 0.00 | 0.00 | 0.00 | 89 | 1019.0 |
| 20260502110118 | -1 | 282 | 3.2 | 4.8 | 0.00 | 0.00 | 0.00 | 89 | 1019.0 |
| 20260502110005 | -1 | 282 | 3.2 | 4.8 | 0.00 | 0.00 | 0.00 | 89 | 1019.0 |
| 20260502105929 | -1 | 282 | 3.2 | 3.2 | 0.00 | 0.00 | 0.00 | 89 | 1019.0 |
| 20260502105805 | -1 | 282 | 1.6 | 3.2 | 0.00 | 0.00 | 0.00 | 89 | 1018.9 |
| 20260502105710 | -1 | 282 | 1.6 | 3.2 | 0.00 | 0.00 | 0.00 | 89 | 1019.0 |
| 20260502105614 | -1 | 282 | 1.6 | 3.2 | 0.00 | 0.00 | 0.00 | 89 | 1018.9 |
| 20260502105519 | -1 | 282 | 0.0 | 3.2 | 0.00 | 0.00 | 0.00 | 89 | 1018.9 |
| 20260502105407 | -1 | 282 | 0.0 | 1.6 | 0.00 | 0.00 | 0.00 | 89 | 1018.9 |
| 20260502105332 | -1 | 282 | 0.0 | 1.6 | 0.00 | 0.00 | 0.00 | 89 | 1019.0 |
| 20260502105216 | -1 | 282 | 0.0 | 0.0 | 0.00 | 0.00 | 0.00 | 88 | 1019.0 |
| 20260502105120 | -1 | 282 | 0.0 | 1.6 | 0.00 | 0.00 | 0.00 | 88 | 1019.0 |
| 20260502105024 | -1 | 282 | 0.0 | 1.6 | 0.00 | 0.00 | 0.00 | 88 | 1019.0 |
| 20260502104928 | -1 | 282 | 0.0 | 1.6 | 0.00 | 0.00 | 0.00 | 88 | 1018.9 |
| 20260502104811 | -1 | 282 | 0.0 | 1.6 | 0.00 | 0.00 | 0.00 | 88 | 1018.9 |
| 20260502104720 | -1 | 282 | 0.0 | 3.2 | 0.00 | 0.00 | 0.00 | 88 | 1019.0 |
| 20260502104604 | -1 | 282 | 0.0 | 3.2 | 0.00 | 0.00 | 0.00 | 88 | 1019.0 |
| 20260502104508 | -1 | 282 | 0.0 | 3.2 | 0.00 | 0.00 | 0.00 | 88 | 1019.0 |
| 20260502104411 | -1 | 282 | 0.0 | 3.2 | 0.00 | 0.00 | 0.00 | 88 | 1018.9 |
| 20260502104315 | -1 | 282 | 0.0 | 3.2 | 0.00 | 0.00 | 0.00 | 88 | 1019.0 |
| 20260502104204 | -1 | 282 | 0.0 | 3.2 | 0.00 | 0.00 | 0.00 | 88 | 1019.0 |
| 20260502104109 | -1 | 282 | 1.6 | 3.2 | 0.00 | 0.00 | 0.00 | 88 | 1019.0 |
| 20260502104014 | -1 | 282 | 1.6 | 3.2 | 0.00 | 0.00 | 0.00 | 88 | 1019.0 |
| 20260502103936 | -1 | 282 | 1.6 | 3.2 | 0.00 | 0.00 | 0.00 | 88 | 1019.0 |
| 20260502103817 | -1 | 282 | 1.6 | 3.2 | 0.00 | 0.00 | 0.00 | 88 | 1019.0 |
| 20260502103739 | -1 | 282 | 1.6 | 3.2 | 0.00 | 0.00 | 0.00 | 88 | 1018.9 |
| 20260502103639 | -1 | 282 | 1.6 | 3.2 | 0.00 | 0.00 | 0.00 | 88 | 1019.0 |
| 20260502103520 | -1 | 282 | 1.6 | 3.2 | 0.00 | 0.00 | 0.00 | 88 | 1019.0 |
| 20260502103442 | -1 | 282 | 1.6 | 3.2 | 0.00 | 0.00 | 0.00 | 88 | 1019.1 |
| 20260502103306 | -1 | 282 | 1.6 | 3.2 | 0.00 | 0.00 | 0.00 | 88 | 1019.1 |
| 20260502103207 | -1 | 282 | 1.6 | 3.2 | 0.00 | 0.00 | 0.00 | 88 | 1019.1 |
| 20260502103108 | -1 | 282 | 1.6 | 3.2 | 0.00 | 0.00 | 0.00 | 88 | 1019.1 |
| 20260502103010 | -1 | 282 | 0.0 | 1.6 | 0.00 | 0.00 | 0.00 | 88 | 1019.1 |
| 20260502102912 | -1 | 282 | 0.0 | 3.2 | 0.00 | 0.00 | 0.00 | 88 | 1019.1 |
| 20260502102814 | -1 | 282 | 0.0 | 3.2 | 0.00 | 0.00 | 0.00 | 88 | 1019.1 |
| 20260502102740 | -1 | 282 | 0.0 | 3.2 | 0.00 | 0.00 | 0.00 | 88 | 1019.0 |
| 20260502102638 | -1 | 282 | 0.0 | 3.2 | 0.00 | 0.00 | 0.00 | 88 | 1019.1 |
| 20260502102519 | -1 | 282 | 0.0 | 3.2 | 0.00 | 0.00 | 0.00 | 88 | 1019.0 |
| 20260502102420 | -1 | 282 | 1.6 | 3.2 | 0.00 | 0.00 | 0.00 | 88 | 1019.0 |
| 20260502102322 | -1 | 282 | 1.6 | 3.2 | 0.00 | 0.00 | 0.00 | 88 | 1019.0 |
| 20260502102223 | -1 | 282 | 1.6 | 3.2 | 0.00 | 0.00 | 0.00 | 88 | 1019.0 |
| 20260502102144 | -1 | 282 | 1.6 | 3.2 | 0.00 | 0.00 | 0.00 | 88 | 1019.1 |
| 20260502102045 | -1 | 282 | 1.6 | 3.2 | 0.00 | 0.00 | 0.00 | 88 | 1019.1 |
| 20260502101909 | -1 | 282 | 1.6 | 3.2 | 0.00 | 0.00 | 0.00 | 87 | 1019.0 |
| 20260502101809 | -1 | 282 | 1.6 | 3.2 | 0.00 | 0.00 | 0.00 | 87 | 1019.1 |
| 20260502101710 | 0 | 282 | 1.6 | 3.2 | 0.00 | 0.00 | 0.00 | 87 | 1019.0 |
| 20260502101631 | 0 | 282 | 1.6 | 3.2 | 0.00 | 0.00 | 0.00 | 87 | 1019.0 |
| 20260502101552 | 0 | 282 | 1.6 | 3.2 | 0.00 | 0.00 | 0.00 | 87 | 1019.0 |
| 20260502101406 | 0 | 282 | 1.6 | 3.2 | 0.00 | 0.00 | 0.00 | 88 | 1019.0 |
| 20260502101310 | 0 | 282 | 1.6 | 3.2 | 0.00 | 0.00 | 0.00 | 88 | 1019.0 |
| 20260502101218 | 0 | 282 | 0.0 | 3.2 | 0.00 | 0.00 | 0.00 | 88 | 1018.9 |
| 20260502101103 | 0 | 282 | 1.6 | 3.2 | 0.00 | 0.00 | 0.00 | 88 | 1019.0 |
| 20260502101007 | 0 | 282 | 1.6 | 3.2 | 0.00 | 0.00 | 0.00 | 88 | 1019.0 |
| 20260502100911 | 0 | 282 | 1.6 | 3.2 | 0.00 | 0.00 | 0.00 | 88 | 1019.0 |
| 20260502100816 | 0 | 282 | 1.6 | 3.2 | 0.00 | 0.00 | 0.00 | 88 | 1019.0 |
| 20260502100704 | 0 | 282 | 1.6 | 3.2 | 0.00 | 0.00 | 0.00 | 88 | 1019.0 |
| 20260502100629 | 0 | 282 | 1.6 | 3.2 | 0.00 | 0.00 | 0.00 | 88 | 1019.0 |
| 20260502100512 | 0 | 282 | 1.6 | 3.2 | 0.00 | 0.00 | 0.00 | 88 | 1019.0 |
| 20260502100416 | 0 | 282 | 1.6 | 3.2 | 0.00 | 0.00 | 0.00 | 88 | 1019.0 |
| 20260502100320 | 0 | 282 | 0.0 | 3.2 | 0.00 | 0.00 | 0.00 | 88 | 1019.0 |
| 20260502100205 | 0 | 282 | 0.0 | 3.2 | 0.00 | 0.00 | 0.00 | 88 | 1019.0 |
| 20260502100110 | 0 | 282 | 0.0 | 3.2 | 0.00 | 0.00 | 0.00 | 88 | 1018.9 |
| 20260502091513 | 0 | 283 | 0.0 | 3.2 | 0.00 | 0.00 | 0.00 | 86 | 1018.9 |
| 20260502091437 | 0 | 283 | 1.6 | 3.2 | 0.00 | 0.00 | 0.00 | 86 | 1018.7 |
| 20260502091305 | 0 | 283 | 3.2 | 3.2 | 0.00 | 0.00 | 0.00 | 86 | 1018.9 |
| 20260502091228 | 0 | 283 | 3.2 | 3.2 | 0.00 | 0.00 | 0.00 | 87 | 1018.8 |
| 20260502091106 | 0 | 283 | 3.2 | 3.2 | 0.00 | 0.00 | 0.00 | 88 | 1018.8 |
| 20260502091011 | 0 | 283 | 1.6 | 3.2 | 0.00 | 0.00 | 0.00 | 88 | 1018.8 |
| 20260502090934 | 0 | 283 | 1.6 | 3.2 | 0.00 | 0.00 | 0.00 | 88 | 1018.9 |
| 20260502090816 | 0 | 283 | 0.0 | 3.2 | 0.00 | 0.00 | 0.00 | 88 | 1018.8 |
| 20260502090721 | 0 | 282 | 0.0 | 3.2 | 0.00 | 0.00 | 0.00 | 88 | 1018.8 |
| 20260502090609 | 0 | 282 | 0.0 | 3.2 | 0.00 | 0.00 | 0.00 | 88 | 1018.8 |
| 20260502090514 | 0 | 282 | 0.0 | 3.2 | 0.00 | 0.00 | 0.00 | 88 | 1018.8 |
| 20260502090418 | 0 | 282 | 0.0 | 3.2 | 0.00 | 0.00 | 0.00 | 88 | 1018.8 |
| 20260502090302 | 0 | 282 | 1.6 | 3.2 | 0.00 | 0.00 | 0.00 | 88 | 1018.8 |
| 20260502090207 | 0 | 282 | 1.6 | 3.2 | 0.00 | 0.00 | 0.00 | 87 | 1018.8 |
| 20260502090131 | 0 | 282 | 1.6 | 3.2 | 0.00 | 0.00 | 0.00 | 87 | 1018.7 |
| 20260502071524 | 1 | 281 | 3.2 | 4.8 | 0.00 | 0.00 | 0.00 | 85 | 1018.9 |
| 20260502071408 | 1 | 281 | 3.2 | 4.8 | 0.00 | 0.00 | 0.00 | 85 | 1018.9 |
| 20260502071313 | 1 | 281 | 3.2 | 4.8 | 0.00 | 0.00 | 0.00 | 85 | 1019.0 |
| 20260502071218 | 1 | 281 | 3.2 | 4.8 | 0.00 | 0.00 | 0.00 | 85 | 1019.0 |
| 20260502071143 | 1 | 281 | 3.2 | 3.2 | 0.00 | 0.00 | 0.00 | 85 | 1019.0 |
| 20260502071027 | 1 | 281 | 3.2 | 3.2 | 0.00 | 0.00 | 0.00 | 85 | 1019.0 |
| 20260502070913 | 1 | 281 | 3.2 | 3.2 | 0.00 | 0.00 | 0.00 | 85 | 1018.9 |
| 20260502070818 | 1 | 281 | 3.2 | 3.2 | 0.00 | 0.00 | 0.00 | 86 | 1019.0 |
| 20260502070722 | 1 | 281 | 3.2 | 3.2 | 0.00 | 0.00 | 0.00 | 86 | 1019.0 |
| 20260502070606 | 1 | 281 | 3.2 | 3.2 | 0.00 | 0.00 | 0.00 | 86 | 1019.0 |
| 20260502070511 | 1 | 281 | 1.6 | 3.2 | 0.00 | 0.00 | 0.00 | 86 | 1018.9 |
| 20260502070416 | 1 | 281 | 3.2 | 3.2 | 0.00 | 0.00 | 0.00 | 86 | 1019.1 |
| 20260502070304 | 1 | 281 | 3.2 | 3.2 | 0.00 | 0.00 | 0.00 | 86 | 1019.0 |
| 20260502070228 | 1 | 281 | 3.2 | 3.2 | 0.00 | 0.00 | 0.00 | 86 | 1019.0 |
| 20260502070105 | 1 | 281 | 1.6 | 4.8 | 0.00 | 0.00 | 0.00 | 86 | 1019.0 |
| 20260502070010 | 1 | 281 | 3.2 | 4.8 | 0.00 | 0.00 | 0.00 | 86 | 1019.0 |
| 20260502065915 | 1 | 281 | 3.2 | 4.8 | 0.00 | 0.00 | 0.00 | 86 | 1019.0 |
| 20260502065819 | 1 | 281 | 3.2 | 4.8 | 0.00 | 0.00 | 0.00 | 86 | 1019.1 |
| 20260502065708 | 1 | 281 | 3.2 | 4.8 | 0.00 | 0.00 | 0.00 | 86 | 1019.1 |
| 20260502065613 | 1 | 281 | 3.2 | 4.8 | 0.00 | 0.00 | 0.00 | 86 | 1019.1 |
| 20260502065518 | 1 | 281 | 3.2 | 4.8 | 0.00 | 0.00 | 0.00 | 86 | 1019.1 |
| 20260502065422 | 1 | 281 | 3.2 | 4.8 | 0.00 | 0.00 | 0.00 | 85 | 1019.0 |
| 20260502065327 | 1 | 281 | 3.2 | 4.8 | 0.00 | 0.00 | 0.00 | 86 | 1019.1 |
| 20260502065209 | 1 | 281 | 3.2 | 4.8 | 0.00 | 0.00 | 0.00 | 86 | 1019.1 |
| 20260502065117 | 1 | 281 | 3.2 | 4.8 | 0.00 | 0.00 | 0.00 | 86 | 1019.1 |
| 20260502065021 | 1 | 281 | 3.2 | 4.8 | 0.00 | 0.00 | 0.00 | 86 | 1019.1 |
| 20260502064906 | 1 | 281 | 3.2 | 4.8 | 0.00 | 0.00 | 0.00 | 86 | 1019.1 |
| 20260502064810 | 1 | 281 | 3.2 | 4.8 | 0.00 | 0.00 | 0.00 | 86 | 1019.0 |
| 20260502064714 | 1 | 281 | 3.2 | 4.8 | 0.00 | 0.00 | 0.00 | 86 | 1019.1 |
| 20260502064635 | 1 | 281 | 3.2 | 4.8 | 0.00 | 0.00 | 0.00 | 86 | 1019.1 |
| 20260502064516 | 1 | 281 | 3.2 | 4.8 | 0.00 | 0.00 | 0.00 | 86 | 1019.0 |
| 20260502064424 | 1 | 281 | 3.2 | 4.8 | 0.00 | 0.00 | 0.00 | 86 | 1019.0 |
| 20260502064327 | 1 | 281 | 3.2 | 4.8 | 0.00 | 0.00 | 0.00 | 86 | 1019.0 |
| 20260502064204 | 1 | 281 | 1.6 | 4.8 | 0.00 | 0.00 | 0.00 | 86 | 1018.9 |
| 20260502064128 | 1 | 281 | 1.6 | 4.8 | 0.00 | 0.00 | 0.00 | 86 | 1019.0 |
| 20260502064012 | 1 | 281 | 1.6 | 4.8 | 0.00 | 0.00 | 0.00 | 86 | 1019.0 |
| 20260502063915 | 1 | 281 | 3.2 | 6.4 | 0.00 | 0.00 | 0.00 | 85 | 1019.0 |
| 20260502063803 | 1 | 281 | 3.2 | 6.4 | 0.00 | 0.00 | 0.00 | 85 | 1019.1 |
| 20260502063728 | 1 | 281 | 3.2 | 6.4 | 0.00 | 0.00 | 0.00 | 85 | 1019.0 |
| 20260502063604 | 1 | 281 | 3.2 | 6.4 | 0.00 | 0.00 | 0.00 | 85 | 1019.0 |
| 20260502063529 | 1 | 281 | 3.2 | 6.4 | 0.00 | 0.00 | 0.00 | 85 | 1019.0 |
| 20260502063405 | 1 | 281 | 3.2 | 6.4 | 0.00 | 0.00 | 0.00 | 85 | 1019.1 |
| 20260502063328 | 1 | 281 | 3.2 | 6.4 | 0.00 | 0.00 | 0.00 | 85 | 1019.0 |
| 20260502063204 | 1 | 281 | 3.2 | 6.4 | 0.00 | 0.00 | 0.00 | 85 | 1019.1 |
| 20260502063112 | 1 | 281 | 3.2 | 6.4 | 0.00 | 0.00 | 0.00 | 85 | 1019.1 |
| 20260502063018 | 1 | 281 | 3.2 | 6.4 | 0.00 | 0.00 | 0.00 | 85 | 1019.1 |
| 20260502062922 | 1 | 281 | 3.2 | 6.4 | 0.00 | 0.00 | 0.00 | 85 | 1019.1 |
| 20260502062825 | 1 | 281 | 3.2 | 6.4 | 0.00 | 0.00 | 0.00 | 85 | 1019.1 |
| 20260502062703 | 1 | 281 | 3.2 | 6.4 | 0.00 | 0.00 | 0.00 | 85 | 1019.1 |
| 20260502062607 | 1 | 281 | 3.2 | 6.4 | 0.00 | 0.00 | 0.00 | 85 | 1019.0 |
| 20260502062515 | 1 | 282 | 3.2 | 6.4 | 0.00 | 0.00 | 0.00 | 85 | 1019.1 |
| 20260502062418 | 1 | 282 | 3.2 | 4.8 | 0.00 | 0.00 | 0.00 | 85 | 1019.1 |
| 20260502062321 | 1 | 282 | 3.2 | 4.8 | 0.00 | 0.00 | 0.00 | 85 | 1019.1 |
| 20260502062226 | 1 | 286 | 1.6 | 3.2 | 0.00 | 0.00 | 0.00 | 85 | 1019.1 |
| 20260502062109 | 1 | 286 | 1.6 | 4.8 | 0.00 | 0.00 | 0.00 | 85 | 1019.1 |
| 20260502062014 | 1 | 286 | 1.6 | 4.8 | 0.00 | 0.00 | 0.00 | 85 | 1019.1 |
| 20260502061922 | 1 | 286 | 3.2 | 4.8 | 0.00 | 0.00 | 0.00 | 85 | 1019.1 |
| 20260502061826 | 1 | 287 | 1.6 | 4.8 | 0.00 | 0.00 | 0.00 | 85 | 1019.1 |
| 20260502061709 | 1 | 287 | 1.6 | 4.8 | 0.00 | 0.00 | 0.00 | 85 | 1019.1 |
| 20260502061612 | 1 | 287 | 1.6 | 4.8 | 0.00 | 0.00 | 0.00 | 85 | 1019.2 |
| 20260502061515 | 1 | 287 | 1.6 | 4.8 | 0.00 | 0.00 | 0.00 | 85 | 1019.1 |
| 20260502061230 | 1 | 287 | 3.2 | 4.8 | 0.00 | 0.00 | 0.00 | 85 | 1019.1 |
| 20260502061106 | 1 | 287 | 3.2 | 4.8 | 0.00 | 0.00 | 0.00 | 85 | 1019.2 |
| 20260502061031 | 1 | 287 | 3.2 | 4.8 | 0.00 | 0.00 | 0.00 | 85 | 1019.2 |
| 20260502060934 | 1 | 287 | 3.2 | 6.4 | 0.00 | 0.00 | 0.00 | 85 | 1019.1 |
| 20260502060837 | 1 | 287 | 3.2 | 6.4 | 0.00 | 0.00 | 0.00 | 85 | 1019.2 |
| 20260502060718 | 1 | 287 | 3.2 | 6.4 | 0.00 | 0.00 | 0.00 | 85 | 1019.2 |
| 20260502060621 | 1 | 287 | 3.2 | 6.4 | 0.00 | 0.00 | 0.00 | 85 | 1019.1 |
| 20260502060507 | 1 | 287 | 3.2 | 6.4 | 0.00 | 0.00 | 0.00 | 85 | 1019.2 |
| 20260502060429 | 1 | 287 | 3.2 | 6.4 | 0.00 | 0.00 | 0.00 | 85 | 1019.1 |
| 20260502060307 | 1 | 288 | 3.2 | 6.4 | 0.00 | 0.00 | 0.00 | 85 | 1019.2 |
| 20260502060230 | 1 | 287 | 4.8 | 6.4 | 0.00 | 0.00 | 0.00 | 85 | 1019.1 |
| 20260502060107 | 1 | 288 | 3.2 | 6.4 | 0.00 | 0.00 | 0.00 | 85 | 1019.1 |
| 20260502060029 | 1 | 288 | 3.2 | 6.4 | 0.00 | 0.00 | 0.00 | 85 | 1019.1 |
| 20260502055910 | 1 | 288 | 3.2 | 6.4 | 0.00 | 0.00 | 0.00 | 85 | 1019.1 |
| 20260502055817 | 1 | 289 | 3.2 | 4.8 | 0.00 | 0.00 | 0.00 | 85 | 1019.2 |
| 20260502055720 | 1 | 289 | 4.8 | 4.8 | 0.00 | 0.00 | 0.00 | 85 | 1019.2 |
| 20260502055624 | 1 | 289 | 4.8 | 4.8 | 0.00 | 0.00 | 0.00 | 85 | 1019.1 |
| 20260502055526 | 1 | 289 | 3.2 | 4.8 | 0.00 | 0.00 | 0.00 | 85 | 1019.1 |
| 20260502055429 | 1 | 289 | 3.2 | 4.8 | 0.00 | 0.00 | 0.00 | 85 | 1019.2 |
| 20260502055306 | 1 | 290 | 3.2 | 4.8 | 0.00 | 0.00 | 0.00 | 85 | 1019.2 |
| 20260502055207 | 1 | 290 | 3.2 | 4.8 | 0.00 | 0.00 | 0.00 | 85 | 1019.2 |
| 20260502055115 | 1 | 290 | 3.2 | 6.4 | 0.00 | 0.00 | 0.00 | 85 | 1019.1 |
| 20260502055038 | 1 | 290 | 3.2 | 6.4 | 0.00 | 0.00 | 0.00 | 85 | 1019.1 |
| 20260502054919 | 1 | 291 | 3.2 | 6.4 | 0.00 | 0.00 | 0.00 | 85 | 1019.2 |
| 20260502054804 | 1 | 292 | 3.2 | 6.4 | 0.00 | 0.00 | 0.00 | 85 | 1019.2 |
| 20260502054706 | 1 | 292 | 3.2 | 6.4 | 0.00 | 0.00 | 0.00 | 85 | 1019.2 |
| 20260502054630 | 1 | 292 | 3.2 | 6.4 | 0.00 | 0.00 | 0.00 | 85 | 1019.1 |
| 20260502054507 | 1 | 292 | 4.8 | 6.4 | 0.00 | 0.00 | 0.00 | 85 | 1019.2 |
| 20260502054413 | 1 | 292 | 4.8 | 6.4 | 0.00 | 0.00 | 0.00 | 84 | 1019.1 |
| 20260502054316 | 1 | 292 | 4.8 | 6.4 | 0.00 | 0.00 | 0.00 | 84 | 1019.2 |
| 20260502054240 | 1 | 292 | 3.2 | 6.4 | 0.00 | 0.00 | 0.00 | 85 | 1019.2 |
| 20260502054142 | 1 | 293 | 3.2 | 6.4 | 0.00 | 0.00 | 0.00 | 84 | 1019.2 |
| 20260502054006 | 1 | 293 | 4.8 | 6.4 | 0.00 | 0.00 | 0.00 | 85 | 1019.1 |
| 20260502053929 | 1 | 294 | 3.2 | 6.4 | 0.00 | 0.00 | 0.00 | 84 | 1019.2 |
| 20260502053810 | 1 | 294 | 3.2 | 6.4 | 0.00 | 0.00 | 0.00 | 84 | 1019.2 |
| 20260502053718 | 1 | 294 | 3.2 | 6.4 | 0.00 | 0.00 | 0.00 | 84 | 1019.2 |
| 20260502053642 | 1 | 294 | 4.8 | 6.4 | 0.00 | 0.00 | 0.00 | 84 | 1019.2 |
| 20260502053523 | 1 | 294 | 4.8 | 6.4 | 0.00 | 0.00 | 0.00 | 84 | 1019.2 |
| 20260502053446 | 1 | 294 | 4.8 | 6.4 | 0.00 | 0.00 | 0.00 | 84 | 1019.2 |
| 20260502053348 | 1 | 294 | 3.2 | 6.4 | 0.00 | 0.00 | 0.00 | 84 | 1019.2 |
| 20260502053250 | 1 | 294 | 3.2 | 4.8 | 0.00 | 0.00 | 0.00 | 84 | 1019.2 |
| 20260502053106 | 1 | 294 | 4.8 | 4.8 | 0.00 | 0.00 | 0.00 | 84 | 1019.2 |
| 20260502053008 | 1 | 294 | 3.2 | 4.8 | 0.00 | 0.00 | 0.00 | 84 | 1019.2 |
| 20260502052915 | 1 | 294 | 3.2 | 4.8 | 0.00 | 0.00 | 0.00 | 84 | 1019.2 |
| 20260502052818 | 1 | 294 | 3.2 | 4.8 | 0.00 | 0.00 | 0.00 | 84 | 1019.3 |
| 20260502052742 | 1 | 294 | 3.2 | 4.8 | 0.00 | 0.00 | 0.00 | 84 | 1019.2 |
| 20260502052624 | 1 | 294 | 3.2 | 4.8 | 0.00 | 0.00 | 0.00 | 84 | 1019.2 |
| 20260502052547 | 1 | 294 | 3.2 | 4.8 | 0.00 | 0.00 | 0.00 | 84 | 1019.2 |
| 20260502052403 | 1 | 294 | 3.2 | 4.8 | 0.00 | 0.00 | 0.00 | 84 | 1019.2 |
| 20260502052307 | 1 | 294 | 3.2 | 4.8 | 0.00 | 0.00 | 0.00 | 84 | 1019.2 |
| 20260502052213 | 1 | 294 | 3.2 | 4.8 | 0.00 | 0.00 | 0.00 | 84 | 1019.2 |
| 20260502052114 | 1 | 294 | 3.2 | 4.8 | 0.00 | 0.00 | 0.00 | 84 | 1019.2 |
| 20260502052018 | 1 | 294 | 3.2 | 4.8 | 0.00 | 0.00 | 0.00 | 84 | 1019.2 |
| 20260502051922 | 1 | 294 | 1.6 | 4.8 | 0.00 | 0.00 | 0.00 | 84 | 1019.2 |
| 20260502051806 | 1 | 294 | 3.2 | 4.8 | 0.00 | 0.00 | 0.00 | 84 | 1019.2 |
| 20260502051708 | 1 | 295 | 3.2 | 4.8 | 0.00 | 0.00 | 0.00 | 84 | 1019.2 |
| 20260502051612 | 1 | 295 | 3.2 | 6.4 | 0.00 | 0.00 | 0.00 | 84 | 1019.1 |
| 20260502051519 | 1 | 295 | 3.2 | 6.4 | 0.00 | 0.00 | 0.00 | 83 | 1019.2 |
| 20260502051423 | 1 | 294 | 3.2 | 6.4 | 0.00 | 0.00 | 0.00 | 83 | 1019.2 |
| 20260502051327 | 1 | 295 | 3.2 | 6.4 | 0.00 | 0.00 | 0.00 | 84 | 1019.2 |
| 20260502051203 | 1 | 294 | 3.2 | 6.4 | 0.00 | 0.00 | 0.00 | 83 | 1019.2 |
| 20260502051128 | 1 | 294 | 3.2 | 6.4 | 0.00 | 0.00 | 0.00 | 83 | 1019.2 |
| 20260502051005 | 1 | 295 | 3.2 | 6.4 | 0.00 | 0.00 | 0.00 | 83 | 1019.2 |
| 20260502050914 | 1 | 295 | 4.8 | 6.4 | 0.00 | 0.00 | 0.00 | 83 | 1019.2 |
| 20260502050837 | 1 | 295 | 3.2 | 6.4 | 0.00 | 0.00 | 0.00 | 83 | 1019.2 |
| 20260502050719 | 1 | 295 | 3.2 | 6.4 | 0.00 | 0.00 | 0.00 | 83 | 1019.2 |
| 20260502050643 | 2 | 296 | 3.2 | 4.8 | 0.00 | 0.00 | 0.00 | 83 | 1019.2 |
| 20260502050528 | 2 | 296 | 3.2 | 4.8 | 0.00 | 0.00 | 0.00 | 83 | 1019.2 |
| 20260502050411 | 2 | 296 | 1.6 | 4.8 | 0.00 | 0.00 | 0.00 | 83 | 1019.2 |
| 20260502050314 | 2 | 296 | 1.6 | 4.8 | 0.00 | 0.00 | 0.00 | 83 | 1019.2 |
| 20260502050203 | 2 | 296 | 1.6 | 4.8 | 0.00 | 0.00 | 0.00 | 83 | 1019.2 |
| 20260502050127 | 2 | 296 | 3.2 | 4.8 | 0.00 | 0.00 | 0.00 | 83 | 1019.2 |
| 20260502050004 | 2 | 296 | 3.2 | 4.8 | 0.00 | 0.00 | 0.00 | 83 | 1019.2 |
| 20260502045908 | 2 | 296 | 3.2 | 4.8 | 0.00 | 0.00 | 0.00 | 83 | 1019.2 |
| 20260502045812 | 2 | 296 | 1.6 | 4.8 | 0.00 | 0.00 | 0.00 | 83 | 1019.2 |
| 20260502045718 | 2 | 296 | 1.6 | 4.8 | 0.00 | 0.00 | 0.00 | 83 | 1019.2 |
| 20260502045626 | 2 | 296 | 3.2 | 4.8 | 0.00 | 0.00 | 0.00 | 83 | 1019.1 |
| 20260502045508 | 2 | 296 | 3.2 | 4.8 | 0.00 | 0.00 | 0.00 | 83 | 1019.2 |
| 20260502045411 | 2 | 296 | 3.2 | 4.8 | 0.00 | 0.00 | 0.00 | 83 | 1019.2 |
| 20260502045335 | 2 | 296 | 3.2 | 4.8 | 0.00 | 0.00 | 0.00 | 83 | 1019.2 |
| 20260502045216 | 2 | 296 | 1.6 | 4.8 | 0.00 | 0.00 | 0.00 | 83 | 1019.2 |
| 20260502045119 | 2 | 296 | 1.6 | 3.2 | 0.00 | 0.00 | 0.00 | 82 | 1019.2 |
| 20260502045023 | 2 | 296 | 1.6 | 3.2 | 0.00 | 0.00 | 0.00 | 82 | 1019.2 |
| 20260502044909 | 2 | 296 | 1.6 | 3.2 | 0.00 | 0.00 | 0.00 | 82 | 1019.2 |
| 20260502044830 | 2 | 296 | 1.6 | 3.2 | 0.00 | 0.00 | 0.00 | 82 | 1019.1 |
| 20260502044706 | 2 | 296 | 1.6 | 3.2 | 0.00 | 0.00 | 0.00 | 82 | 1019.2 |
| 20260502044609 | 2 | 296 | 1.6 | 4.8 | 0.00 | 0.00 | 0.00 | 82 | 1019.1 |
| 20260502044534 | 2 | 296 | 1.6 | 4.8 | 0.00 | 0.00 | 0.00 | 81 | 1019.1 |
| 20260502044438 | 2 | 296 | 1.6 | 4.8 | 0.00 | 0.00 | 0.00 | 81 | 1019.1 |
| 20260502044322 | 2 | 296 | 1.6 | 4.8 | 0.00 | 0.00 | 0.00 | 81 | 1019.1 |
| 20260502044210 | 2 | 296 | 1.6 | 4.8 | 0.00 | 0.00 | 0.00 | 82 | 1019.0 |
| 20260502044113 | 2 | 296 | 1.6 | 4.8 | 0.00 | 0.00 | 0.00 | 82 | 1019.1 |
| 20260502044017 | 2 | 296 | 1.6 | 4.8 | 0.00 | 0.00 | 0.00 | 82 | 1019.1 |
| 20260502043920 | 2 | 296 | 1.6 | 4.8 | 0.00 | 0.00 | 0.00 | 82 | 1019.1 |
| 20260502043843 | 2 | 296 | 3.2 | 4.8 | 0.00 | 0.00 | 0.00 | 81 | 1019.2 |
| 20260502043727 | 2 | 296 | 1.6 | 3.2 | 0.00 | 0.00 | 0.00 | 81 | 1019.1 |
| 20260502043603 | 2 | 296 | 1.6 | 3.2 | 0.00 | 0.00 | 0.00 | 81 | 1019.1 |
| 20260502043510 | 2 | 296 | 1.6 | 3.2 | 0.00 | 0.00 | 0.00 | 80 | 1019.1 |
| 20260502043434 | 2 | 296 | 1.6 | 3.2 | 0.00 | 0.00 | 0.00 | 80 | 1019.1 |
| 20260502043336 | 2 | 296 | 1.6 | 3.2 | 0.00 | 0.00 | 0.00 | 80 | 1019.1 |
| 20260502043259 | 2 | 296 | 1.6 | 3.2 | 0.00 | 0.00 | 0.00 | 80 | 1019.1 |
| 20260502043006 | 2 | 296 | 1.6 | 3.2 | 0.00 | 0.00 | 0.00 | 80 | 1019.1 |
| 20260502042929 | 2 | 296 | 1.6 | 3.2 | 0.00 | 0.00 | 0.00 | 80 | 1019.1 |
| 20260502042805 | 2 | 296 | 1.6 | 3.2 | 0.00 | 0.00 | 0.00 | 79 | 1019.1 |
| 20260502042712 | 2 | 296 | 1.6 | 3.2 | 0.00 | 0.00 | 0.00 | 79 | 1019.1 |
| 20260502042615 | 2 | 296 | 1.6 | 3.2 | 0.00 | 0.00 | 0.00 | 78 | 1019.1 |
| 20260502042519 | 2 | 296 | 1.6 | 3.2 | 0.00 | 0.00 | 0.00 | 78 | 1019.1 |
| 20260502042404 | 2 | 297 | 1.6 | 3.2 | 0.00 | 0.00 | 0.00 | 78 | 1019.2 |
| 20260502042327 | 2 | 297 | 1.6 | 3.2 | 0.00 | 0.00 | 0.00 | 78 | 1019.2 |
| 20260502042203 | 2 | 297 | 0.0 | 1.6 | 0.00 | 0.00 | 0.00 | 77 | 1019.1 |
| 20260502042131 | 2 | 297 | 0.0 | 1.6 | 0.00 | 0.00 | 0.00 | 77 | 1019.1 |
| 20260502042014 | 2 | 297 | 0.0 | 1.6 | 0.00 | 0.00 | 0.00 | 77 | 1019.1 |
| 20260502041917 | 2 | 297 | 1.6 | 1.6 | 0.00 | 0.00 | 0.00 | 76 | 1019.2 |
| 20260502041841 | 2 | 297 | 0.0 | 1.6 | 0.00 | 0.00 | 0.00 | 76 | 1019.1 |
| 20260502041724 | 2 | 297 | 1.6 | 1.6 | 0.00 | 0.00 | 0.00 | 75 | 1019.1 |
| 20260502041627 | 2 | 297 | 1.6 | 1.6 | 0.00 | 0.00 | 0.00 | 74 | 1019.1 |
| 20260502041529 | 2 | 297 | 1.6 | 1.6 | 0.00 | 0.00 | 0.00 | 75 | 1019.2 |
| 20260502041410 | 2 | 297 | 1.6 | 1.6 | 0.00 | 0.00 | 0.00 | 75 | 1019.1 |
| 20260502041334 | 2 | 297 | 0.0 | 1.6 | 0.00 | 0.00 | 0.00 | 75 | 1019.1 |
| 20260502041241 | 2 | 297 | 0.0 | 1.6 | 0.00 | 0.00 | 0.00 | 75 | 1019.1 |
| 20260502041124 | 2 | 297 | 0.0 | 1.6 | 0.00 | 0.00 | 0.00 | 76 | 1019.2 |
| 20260502041007 | 2 | 297 | 0.0 | 1.6 | 0.00 | 0.00 | 0.00 | 76 | 1019.1 |
| 20260502040910 | 2 | 297 | 0.0 | 1.6 | 0.00 | 0.00 | 0.00 | 76 | 1019.1 |
| 20260502040813 | 2 | 297 | 1.6 | 1.6 | 0.00 | 0.00 | 0.00 | 75 | 1019.1 |
| 20260502040737 | 2 | 297 | 1.6 | 1.6 | 0.00 | 0.00 | 0.00 | 75 | 1019.1 |
| 20260502040619 | 2 | 297 | 1.6 | 1.6 | 0.00 | 0.00 | 0.00 | 73 | 1019.1 |
| 20260502040506 | 2 | 297 | 1.6 | 1.6 | 0.00 | 0.00 | 0.00 | 73 | 1019.1 |
| 20260502040431 | 2 | 297 | 1.6 | 1.6 | 0.00 | 0.00 | 0.00 | 73 | 1019.1 |
| 20260502040313 | 2 | 297 | 1.6 | 1.6 | 0.00 | 0.00 | 0.00 | 73 | 1019.2 |
| 20260502040216 | 2 | 297 | 1.6 | 1.6 | 0.00 | 0.00 | 0.00 | 73 | 1019.1 |
| 20260502040119 | 2 | 297 | 1.6 | 1.6 | 0.00 | 0.00 | 0.00 | 73 | 1019.1 |
| 20260502040022 | 2 | 297 | 1.6 | 1.6 | 0.00 | 0.00 | 0.00 | 73 | 1019.2 |
| 20260502035927 | 2 | 297 | 1.6 | 1.6 | 0.00 | 0.00 | 0.00 | 73 | 1019.2 |
| 20260502035814 | 2 | 297 | 1.6 | 1.6 | 0.00 | 0.00 | 0.00 | 73 | 1019.1 |
| 20260502035717 | 2 | 297 | 0.0 | 1.6 | 0.00 | 0.00 | 0.00 | 73 | 1019.2 |
| 20260502035622 | 2 | 297 | 0.0 | 1.6 | 0.00 | 0.00 | 0.00 | 73 | 1019.2 |
| 20260502035507 | 2 | 297 | 0.0 | 1.6 | 0.00 | 0.00 | 0.00 | 73 | 1019.2 |
| 20260502035412 | 2 | 297 | 0.0 | 1.6 | 0.00 | 0.00 | 0.00 | 73 | 1019.2 |
| 20260502035316 | 2 | 297 | 0.0 | 1.6 | 0.00 | 0.00 | 0.00 | 73 | 1019.2 |
| 20260502035223 | 3 | 297 | 0.0 | 3.2 | 0.00 | 0.00 | 0.00 | 73 | 1019.2 |
| 20260502035148 | 3 | 297 | 0.0 | 3.2 | 0.00 | 0.00 | 0.00 | 73 | 1019.2 |
| 20260502035004 | 3 | 297 | 0.0 | 3.2 | 0.00 | 0.00 | 0.00 | 73 | 1019.2 |
| 20260502034909 | 3 | 297 | 0.0 | 3.2 | 0.00 | 0.00 | 0.00 | 74 | 1019.2 |
| 20260502034832 | 3 | 297 | 0.0 | 3.2 | 0.00 | 0.00 | 0.00 | 74 | 1019.2 |
| 20260502034736 | 3 | 297 | 0.0 | 3.2 | 0.00 | 0.00 | 0.00 | 74 | 1019.2 |
| 20260502034618 | 3 | 297 | 0.0 | 3.2 | 0.00 | 0.00 | 0.00 | 74 | 1019.2 |
| 20260502034506 | 3 | 297 | 1.6 | 3.2 | 0.00 | 0.00 | 0.00 | 75 | 1019.2 |
| 20260502034430 | 3 | 297 | 1.6 | 3.2 | 0.00 | 0.00 | 0.00 | 74 | 1019.2 |
| 20260502034333 | 3 | 297 | 1.6 | 3.2 | 0.00 | 0.00 | 0.00 | 74 | 1019.2 |
| 20260502034237 | 3 | 297 | 1.6 | 3.2 | 0.00 | 0.00 | 0.00 | 73 | 1019.2 |
| 20260502034141 | 3 | 297 | 1.6 | 3.2 | 0.00 | 0.00 | 0.00 | 71 | 1019.2 |
| 20260502034005 | 3 | 297 | 1.6 | 3.2 | 0.00 | 0.00 | 0.00 | 71 | 1019.2 |
| 20260502033908 | 3 | 297 | 1.6 | 3.2 | 0.00 | 0.00 | 0.00 | 70 | 1019.2 |
| 20260502033813 | 3 | 297 | 1.6 | 3.2 | 0.00 | 0.00 | 0.00 | 70 | 1019.3 |
| 20260502033722 | 3 | 297 | 1.6 | 3.2 | 0.00 | 0.00 | 0.00 | 71 | 1019.2 |
| 20260502033607 | 3 | 297 | 1.6 | 3.2 | 0.00 | 0.00 | 0.00 | 73 | 1019.2 |
| 20260502033512 | 3 | 297 | 1.6 | 3.2 | 0.00 | 0.00 | 0.00 | 74 | 1019.2 |
| 20260502033415 | 3 | 297 | 1.6 | 3.2 | 0.00 | 0.00 | 0.00 | 74 | 1019.3 |
| 20260502033320 | 3 | 298 | 1.6 | 3.2 | 0.00 | 0.00 | 0.00 | 73 | 1019.3 |
| 20260502033225 | 3 | 299 | 1.6 | 3.2 | 0.00 | 0.00 | 0.00 | 73 | 1019.3 |
| 20260502033112 | 3 | 300 | 1.6 | 3.2 | 0.00 | 0.00 | 0.00 | 74 | 1019.3 |
| 20260502033017 | 3 | 301 | 1.6 | 3.2 | 0.00 | 0.00 | 0.00 | 75 | 1019.3 |
| 20260502032941 | 3 | 301 | 1.6 | 3.2 | 0.00 | 0.00 | 0.00 | 75 | 1019.2 |
| 20260502032844 | 3 | 301 | 1.6 | 3.2 | 0.00 | 0.00 | 0.00 | 75 | 1019.3 |
| 20260502032748 | 3 | 301 | 0.0 | 1.6 | 0.00 | 0.00 | 0.00 | 74 | 1019.3 |
| 20260502032604 | 3 | 301 | 0.0 | 0.0 | 0.00 | 0.00 | 0.00 | 73 | 1019.3 |
| 20260502032509 | 3 | 301 | 0.0 | 0.0 | 0.00 | 0.00 | 0.00 | 71 | 1019.3 |
| 20260502032417 | 3 | 301 | 0.0 | 0.0 | 0.00 | 0.00 | 0.00 | 72 | 1019.3 |
| 20260502032322 | 3 | 301 | 0.0 | 0.0 | 0.00 | 0.00 | 0.00 | 73 | 1019.3 |
| 20260502032207 | 3 | 301 | 0.0 | 0.0 | 0.00 | 0.00 | 0.00 | 73 | 1019.3 |
| 20260502032111 | 3 | 301 | 0.0 | 0.0 | 0.00 | 0.00 | 0.00 | 72 | 1019.2 |
| 20260502032015 | 3 | 301 | 0.0 | 1.6 | 0.00 | 0.00 | 0.00 | 71 | 1019.2 |
| 20260502031920 | 3 | 301 | 0.0 | 1.6 | 0.00 | 0.00 | 0.00 | 71 | 1019.2 |
| 20260502031808 | 3 | 301 | 0.0 | 1.6 | 0.00 | 0.00 | 0.00 | 71 | 1019.2 |
| 20260502031713 | 3 | 301 | 0.0 | 1.6 | 0.00 | 0.00 | 0.00 | 72 | 1019.2 |
| 20260502031617 | 3 | 301 | 0.0 | 1.6 | 0.00 | 0.00 | 0.00 | 72 | 1019.2 |
| 20260502031541 | 3 | 301 | 0.0 | 3.2 | 0.00 | 0.00 | 0.00 | 72 | 1019.2 |
| 20260502031405 | 3 | 301 | 0.0 | 3.2 | 0.00 | 0.00 | 0.00 | 70 | 1019.2 |
| 20260502031309 | 3 | 301 | 0.0 | 3.2 | 0.00 | 0.00 | 0.00 | 70 | 1019.1 |
| 20260502031217 | 3 | 301 | 0.0 | 3.2 | 0.00 | 0.00 | 0.00 | 69 | 1019.1 |
| 20260502031121 | 3 | 301 | 1.6 | 3.2 | 0.00 | 0.00 | 0.00 | 69 | 1019.1 |
| 20260502031005 | 3 | 301 | 1.6 | 3.2 | 0.00 | 0.00 | 0.00 | 69 | 1019.1 |
| 20260502030908 | 3 | 301 | 1.6 | 3.2 | 0.00 | 0.00 | 0.00 | 68 | 1019.2 |
| 20260502030812 | 3 | 301 | 1.6 | 3.2 | 0.00 | 0.00 | 0.00 | 66 | 1019.2 |
| 20260502030716 | 3 | 301 | 1.6 | 3.2 | 0.00 | 0.00 | 0.00 | 67 | 1019.2 |
| 20260502030639 | 4 | 301 | 1.6 | 3.2 | 0.00 | 0.00 | 0.00 | 67 | 1019.2 |
| 20260502030526 | 4 | 301 | 1.6 | 3.2 | 0.00 | 0.00 | 0.00 | 68 | 1019.1 |
| 20260502030403 | 4 | 301 | 1.6 | 3.2 | 0.00 | 0.00 | 0.00 | 69 | 1019.1 |
| 20260502030307 | 4 | 301 | 1.6 | 3.2 | 0.00 | 0.00 | 0.00 | 68 | 1019.2 |
| 20260502030210 | 4 | 301 | 1.6 | 3.2 | 0.00 | 0.00 | 0.00 | 68 | 1019.1 |
| 20260502030113 | 4 | 301 | 0.0 | 3.2 | 0.00 | 0.00 | 0.00 | 65 | 1019.1 |
| 20260502030016 | 4 | 301 | 0.0 | 0.0 | 0.00 | 0.00 | 0.00 | 64 | 1019.2 |
| 20260502025905 | 4 | 301 | 0.0 | 0.0 | 0.00 | 0.00 | 0.00 | 64 | 1019.1 |
| 20260502025828 | 4 | 301 | 0.0 | 0.0 | 0.00 | 0.00 | 0.00 | 64 | 1019.1 |
| 20260502025710 | 4 | 301 | 0.0 | 0.0 | 0.00 | 0.00 | 0.00 | 64 | 1019.1 |
| 20260502025615 | 5 | 301 | 0.0 | 0.0 | 0.00 | 0.00 | 0.00 | 64 | 1019.2 |
| 20260502025539 | 5 | 301 | 0.0 | 0.0 | 0.00 | 0.00 | 0.00 | 64 | 1019.1 |
| 20260502025421 | 5 | 301 | 0.0 | 0.0 | 0.00 | 0.00 | 0.00 | 63 | 1019.1 |
| 20260502025308 | 5 | 301 | 0.0 | 0.0 | 0.00 | 0.00 | 0.00 | 63 | 1019.2 |
| 20260502025213 | 5 | 301 | 0.0 | 0.0 | 0.00 | 0.00 | 0.00 | 63 | 1019.1 |
| 20260502025116 | 5 | 301 | 0.0 | 0.0 | 0.00 | 0.00 | 0.00 | 64 | 1019.2 |
| 20260502025020 | 5 | 301 | 0.0 | 0.0 | 0.00 | 0.00 | 0.00 | 64 | 1019.1 |
| 20260502024925 | 5 | 301 | 0.0 | 0.0 | 0.00 | 0.00 | 0.00 | 64 | 1019.1 |
| 20260502024829 | 5 | 301 | 0.0 | 0.0 | 0.00 | 0.00 | 0.00 | 64 | 1019.1 |
| 20260502024706 | 5 | 301 | 0.0 | 1.6 | 0.00 | 0.00 | 0.00 | 64 | 1019.2 |
| 20260502024614 | 5 | 301 | 0.0 | 1.6 | 0.00 | 0.00 | 0.00 | 64 | 1019.1 |
| 20260502024518 | 5 | 301 | 0.0 | 1.6 | 0.00 | 0.00 | 0.00 | 65 | 1019.2 |
| 20260502024422 | 5 | 301 | 0.0 | 1.6 | 0.00 | 0.00 | 0.00 | 69 | 1019.1 |
| 20260502024325 | 5 | 301 | 0.0 | 1.6 | 0.00 | 0.00 | 0.00 | 69 | 1019.2 |
| 20260502024207 | 5 | 301 | 0.0 | 1.6 | 0.00 | 0.00 | 0.00 | 68 | 1019.2 |
| 20260502024131 | 5 | 301 | 0.0 | 1.6 | 0.00 | 0.00 | 0.00 | 64 | 1019.1 |
| 20260502024014 | 5 | 301 | 0.0 | 1.6 | 0.00 | 0.00 | 0.00 | 63 | 1019.2 |
| 20260502023920 | 5 | 301 | 0.0 | 1.6 | 0.00 | 0.00 | 0.00 | 65 | 1019.1 |
| 20260502023805 | 5 | 301 | 0.0 | 1.6 | 0.00 | 0.00 | 0.00 | 65 | 1019.2 |
| 20260502023729 | 5 | 301 | 0.0 | 1.6 | 0.00 | 0.00 | 0.00 | 63 | 1019.2 |
| 20260502023611 | 5 | 301 | 0.0 | 0.0 | 0.00 | 0.00 | 0.00 | 62 | 1019.1 |
| 20260502023514 | 5 | 301 | 0.0 | 0.0 | 0.00 | 0.00 | 0.00 | 62 | 1019.2 |
| 20260502023417 | 5 | 301 | 0.0 | 0.0 | 0.00 | 0.00 | 0.00 | 62 | 1019.2 |
| 20260502023325 | 6 | 301 | 0.0 | 0.0 | 0.00 | 0.00 | 0.00 | 63 | 1019.2 |
| 20260502023206 | 6 | 301 | 0.0 | 0.0 | 0.00 | 0.00 | 0.00 | 61 | 1019.2 |
| 20260502023110 | 6 | 301 | 0.0 | 0.0 | 0.00 | 0.00 | 0.00 | 60 | 1019.3 |
| 20260502023013 | 6 | 301 | 0.0 | 0.0 | 0.00 | 0.00 | 0.00 | 60 | 1019.2 |
| 20260502022936 | 6 | 301 | 0.0 | 0.0 | 0.00 | 0.00 | 0.00 | 60 | 1019.2 |
| 20260502022818 | 6 | 301 | 0.0 | 1.6 | 0.00 | 0.00 | 0.00 | 59 | 1019.2 |
| 20260502022721 | 6 | 301 | 0.0 | 1.6 | 0.00 | 0.00 | 0.00 | 57 | 1019.2 |
| 20260502022628 | 6 | 301 | 0.0 | 1.6 | 0.00 | 0.00 | 0.00 | 56 | 1019.2 |
| 20260502022505 | 6 | 301 | 0.0 | 1.6 | 0.00 | 0.00 | 0.00 | 56 | 1019.2 |
| 20260502022429 | 6 | 301 | 0.0 | 1.6 | 0.00 | 0.00 | 0.00 | 57 | 1019.2 |
| 20260502022311 | 6 | 301 | 0.0 | 1.6 | 0.00 | 0.00 | 0.00 | 57 | 1019.2 |
| 20260502022213 | 6 | 301 | 0.0 | 1.6 | 0.00 | 0.00 | 0.00 | 56 | 1019.2 |
| 20260502022116 | 6 | 301 | 0.0 | 1.6 | 0.00 | 0.00 | 0.00 | 59 | 1019.2 |
| 20260502022003 | 6 | 301 | 0.0 | 1.6 | 0.00 | 0.00 | 0.00 | 62 | 1019.2 |
| 20260502021927 | 6 | 301 | 0.0 | 1.6 | 0.00 | 0.00 | 0.00 | 63 | 1019.2 |
| 20260502021809 | 6 | 301 | 0.0 | 1.6 | 0.00 | 0.00 | 0.00 | 63 | 1019.2 |
| 20260502021712 | 6 | 301 | 1.6 | 1.6 | 0.00 | 0.00 | 0.00 | 63 | 1019.1 |
| 20260502021615 | 6 | 301 | 1.6 | 1.6 | 0.00 | 0.00 | 0.00 | 60 | 1019.2 |
| 20260502021518 | 6 | 301 | 1.6 | 1.6 | 0.00 | 0.00 | 0.00 | 57 | 1019.2 |
| 20260502021421 | 6 | 301 | 1.6 | 1.6 | 0.00 | 0.00 | 0.00 | 55 | 1019.1 |
| 20260502021327 | 6 | 301 | 1.6 | 3.2 | 0.00 | 0.00 | 0.00 | 56 | 1019.2 |
| 20260502021203 | 7 | 301 | 1.6 | 3.2 | 0.00 | 0.00 | 0.00 | 57 | 1019.2 |
| 20260502021127 | 7 | 301 | 1.6 | 3.2 | 0.00 | 0.00 | 0.00 | 59 | 1019.1 |
| 20260502021029 | 7 | 301 | 1.6 | 3.2 | 0.00 | 0.00 | 0.00 | 58 | 1019.1 |
| 20260502020931 | 7 | 301 | 1.6 | 3.2 | 0.00 | 0.00 | 0.00 | 57 | 1019.2 |
| 20260502020815 | 7 | 301 | 1.6 | 3.2 | 0.00 | 0.00 | 0.00 | 58 | 1019.1 |
| 20260502020718 | 7 | 301 | 1.6 | 3.2 | 0.00 | 0.00 | 0.00 | 61 | 1019.2 |
| 20260502020641 | 7 | 301 | 1.6 | 3.2 | 0.00 | 0.00 | 0.00 | 63 | 1019.1 |
| 20260502020528 | 7 | 301 | 1.6 | 3.2 | 0.00 | 0.00 | 0.00 | 62 | 1019.1 |
| 20260502020405 | 7 | 301 | 1.6 | 3.2 | 0.00 | 0.00 | 0.00 | 60 | 1019.1 |
| 20260502020308 | 7 | 301 | 3.2 | 4.8 | 0.00 | 0.00 | 0.00 | 59 | 1019.1 |
| 20260502020212 | 7 | 302 | 3.2 | 4.8 | 0.00 | 0.00 | 0.00 | 60 | 1019.0 |
| 20260502020115 | 7 | 302 | 1.6 | 4.8 | 0.00 | 0.00 | 0.00 | 57 | 1019.1 |
| 20260502020019 | 7 | 302 | 1.6 | 4.8 | 0.00 | 0.00 | 0.00 | 59 | 1019.1 |
| 20260502015906 | 7 | 302 | 1.6 | 6.4 | 0.00 | 0.00 | 0.00 | 59 | 1019.1 |
| 20260502015831 | 7 | 302 | 1.6 | 6.4 | 0.00 | 0.00 | 0.00 | 57 | 1019.1 |
| 20260502015714 | 7 | 302 | 1.6 | 6.4 | 0.00 | 0.00 | 0.00 | 53 | 1019.0 |
| 20260502015639 | 8 | 302 | 3.2 | 6.4 | 0.00 | 0.00 | 0.00 | 53 | 1019.0 |
| 20260502015522 | 8 | 302 | 3.2 | 6.4 | 0.00 | 0.00 | 0.00 | 54 | 1019.0 |
| 20260502015407 | 8 | 302 | 3.2 | 6.4 | 0.00 | 0.00 | 0.00 | 53 | 1019.0 |
| 20260502015310 | 8 | 302 | 3.2 | 6.4 | 0.00 | 0.00 | 0.00 | 55 | 1018.9 |
| 20260502015219 | 8 | 302 | 3.2 | 6.4 | 0.00 | 0.00 | 0.00 | 57 | 1018.9 |
| 20260502015121 | 8 | 302 | 3.2 | 6.4 | 0.00 | 0.00 | 0.00 | 52 | 1018.8 |
| 20260502015026 | 8 | 302 | 3.2 | 4.8 | 0.00 | 0.00 | 0.00 | 54 | 1018.9 |
| 20260502014928 | 8 | 326 | 3.2 | 4.8 | 0.00 | 0.00 | 0.00 | 57 | 1018.9 |
| 20260502014806 | 8 | 327 | 1.6 | 6.4 | 0.00 | 0.00 | 0.00 | 55 | 1018.9 |
| 20260502014731 | 8 | 328 | 3.2 | 6.4 | 0.00 | 0.00 | 0.00 | 53 | 1018.9 |
| 20260502014634 | 8 | 328 | 3.2 | 6.4 | 0.00 | 0.00 | 0.00 | 48 | 1018.8 |
| 20260502014519 | 8 | 331 | 1.6 | 6.4 | 0.00 | 0.00 | 0.00 | 47 | 1018.8 |
| 20260502014420 | 9 | 332 | 1.6 | 6.4 | 0.00 | 0.00 | 0.00 | 47 | 1018.8 |
| 20260502014324 | 9 | 332 | 3.2 | 6.4 | 0.00 | 0.00 | 0.00 | 49 | 1018.8 |
| 20260502014247 | 9 | 332 | 3.2 | 6.4 | 0.00 | 0.00 | 0.00 | 51 | 1018.9 |
| 20260502014104 | 9 | 332 | 3.2 | 6.4 | 0.00 | 0.00 | 0.00 | 50 | 1018.8 |
| 20260502014027 | 9 | 332 | 4.8 | 6.4 | 0.00 | 0.00 | 0.00 | 50 | 1018.8 |
| 20260502013904 | 10 | 331 | 3.2 | 4.8 | 0.00 | 0.00 | 0.00 | 49 | 1018.8 |
| 20260502013832 | 10 | 331 | 1.6 | 4.8 | 0.00 | 0.00 | 0.00 | 44 | 1018.8 |
| 20260502013734 | 10 | 331 | 1.6 | 4.8 | 0.00 | 0.00 | 0.00 | 45 | 1018.8 |
| 20260502013615 | 10 | 332 | 3.2 | 4.8 | 0.00 | 0.00 | 0.00 | 49 | 1018.8 |
| 20260502013519 | 10 | 331 | 3.2 | 4.8 | 0.00 | 0.00 | 0.00 | 51 | 1018.8 |
| 20260502013425 | 10 | 331 | 3.2 | 4.8 | 0.00 | 0.00 | 0.00 | 46 | 1018.8 |
| 20260502013328 | 10 | 346 | 3.2 | 4.8 | 0.00 | 0.00 | 0.00 | 46 | 1018.8 |
| 20260502013205 | 10 | 346 | 1.6 | 4.8 | 0.00 | 0.00 | 0.00 | 49 | 1018.8 |
| 20260502013130 | 10 | 347 | 1.6 | 4.8 | 0.00 | 0.00 | 0.00 | 49 | 1018.7 |
| 20260502013016 | 10 | 347 | 1.6 | 4.8 | 0.00 | 0.00 | 0.00 | 47 | 1018.7 |
| 20260502012940 | 10 | 347 | 1.6 | 4.8 | 0.00 | 0.00 | 0.00 | 49 | 1018.7 |
| 20260502012822 | 10 | 347 | 1.6 | 4.8 | 0.00 | 0.00 | 0.00 | 45 | 1018.7 |
| 20260502012706 | 10 | 347 | 3.2 | 4.8 | 0.00 | 0.00 | 0.00 | 46 | 1018.7 |
| 20260502012611 | 10 | 346 | 1.6 | 4.8 | 0.00 | 0.00 | 0.00 | 45 | 1018.8 |
| 20260502012515 | 10 | 346 | 1.6 | 4.8 | 0.00 | 0.00 | 0.00 | 44 | 1018.7 |
| 20260502012404 | 10 | 347 | 3.2 | 4.8 | 0.00 | 0.00 | 0.00 | 41 | 1018.7 |
| 20260502012328 | 10 | 347 | 3.2 | 4.8 | 0.00 | 0.00 | 0.00 | 41 | 1018.7 |
| 20260502012205 | 10 | 346 | 3.2 | 4.8 | 0.00 | 0.00 | 0.00 | 45 | 1018.7 |
| 20260502012109 | 10 | 344 | 3.2 | 4.8 | 0.00 | 0.00 | 0.00 | 45 | 1018.7 |
| 20260502012034 | 10 | 344 | 3.2 | 4.8 | 0.00 | 0.00 | 0.00 | 45 | 1018.7 |
| 20260502011916 | 10 | 344 | 3.2 | 4.8 | 0.00 | 0.00 | 0.00 | 43 | 1018.7 |
| 20260502011841 | 10 | 350 | 3.2 | 4.8 | 0.00 | 0.00 | 0.00 | 42 | 1018.7 |
| 20260502011709 | 10 | 351 | 3.2 | 6.4 | 0.00 | 0.00 | 0.00 | 44 | 1018.7 |
| 20260502011632 | 10 | 309 | 3.2 | 8.0 | 0.00 | 0.00 | 0.00 | 41 | 1018.7 |
| 20260502011516 | 10 | 308 | 3.2 | 8.0 | 0.00 | 0.00 | 0.00 | 40 | 1018.7 |
| 20260502011420 | 10 | 323 | 1.6 | 8.0 | 0.00 | 0.00 | 0.00 | 43 | 1018.7 |
| 20260502011304 | 10 | 5 | 3.2 | 8.0 | 0.00 | 0.00 | 0.00 | 40 | 1018.7 |
| 20260502011209 | 10 | 5 | 3.2 | 8.0 | 0.00 | 0.00 | 0.00 | 38 | 1018.7 |
| 20260502011114 | 10 | 5 | 3.2 | 8.0 | 0.00 | 0.00 | 0.00 | 41 | 1018.7 |
| 20260502011020 | 10 | 5 | 4.8 | 8.0 | 0.00 | 0.00 | 0.00 | 39 | 1018.7 |
| 20260502010920 | 10 | 5 | 4.8 | 8.0 | 0.00 | 0.00 | 0.00 | 39 | 1018.6 |
| 20260502010821 | 10 | 10 | 4.8 | 8.0 | 0.00 | 0.00 | 0.00 | 38 | 1018.7 |
| 20260502010727 | 10 | 329 | 4.8 | 8.0 | 0.00 | 0.00 | 0.00 | 39 | 1018.7 |
| 20260502010607 | 11 | 5 | 4.8 | 6.4 | 0.00 | 0.00 | 0.00 | 38 | 1018.6 |
| 20260502010511 | 11 | 355 | 3.2 | 6.4 | 0.00 | 0.00 | 0.00 | 39 | 1018.6 |
| 20260502010415 | 11 | 344 | 3.2 | 6.4 | 0.00 | 0.00 | 0.00 | 43 | 1018.6 |
| 20260502010321 | 11 | 344 | 1.6 | 6.4 | 0.00 | 0.00 | 0.00 | 43 | 1018.6 |
| 20260502010206 | 11 | 344 | 1.6 | 8.0 | 0.00 | 0.00 | 0.00 | 44 | 1018.6 |
| 20260502010111 | 11 | 344 | 3.2 | 8.0 | 0.00 | 0.00 | 0.00 | 42 | 1018.6 |
| 20260502010037 | 11 | 344 | 3.2 | 8.0 | 0.00 | 0.00 | 0.00 | 37 | 1018.6 |
| 20260502005902 | 11 | 355 | 3.2 | 8.0 | 0.00 | 0.00 | 0.00 | 37 | 1018.6 |
| 20260502005806 | 11 | 355 | 4.8 | 8.0 | 0.00 | 0.00 | 0.00 | 37 | 1018.7 |
| 20260502005715 | 11 | 355 | 4.8 | 8.0 | 0.00 | 0.00 | 0.00 | 37 | 1018.6 |
| 20260502005620 | 11 | 360 | 3.2 | 8.0 | 0.00 | 0.00 | 0.00 | 40 | 1018.6 |
| 20260502005525 | 11 | 360 | 4.8 | 8.0 | 0.00 | 0.00 | 0.00 | 40 | 1018.6 |
| 20260502005407 | 11 | 5 | 6.4 | 8.0 | 0.00 | 0.00 | 0.00 | 37 | 1018.6 |
| 20260502005311 | 11 | 318 | 6.4 | 8.0 | 0.00 | 0.00 | 0.00 | 39 | 1018.6 |
| 20260502005216 | 11 | 322 | 4.8 | 8.0 | 0.00 | 0.00 | 0.00 | 40 | 1018.6 |
| 20260502005104 | 11 | 58 | 3.2 | 8.0 | 0.00 | 0.00 | 0.00 | 42 | 1018.6 |
| 20260502005010 | 11 | 58 | 3.2 | 8.0 | 0.00 | 0.00 | 0.00 | 42 | 1018.6 |
| 20260502004913 | 11 | 58 | 3.2 | 8.0 | 0.00 | 0.00 | 0.00 | 42 | 1018.6 |
| 20260502004818 | 11 | 58 | 4.8 | 8.0 | 0.00 | 0.00 | 0.00 | 40 | 1018.6 |
| 20260502004722 | 11 | 42 | 3.2 | 8.0 | 0.00 | 0.00 | 0.00 | 37 | 1018.6 |
| 20260502004604 | 11 | 44 | 3.2 | 8.0 | 0.00 | 0.00 | 0.00 | 37 | 1018.6 |
| 20260502004533 | 11 | 44 | 4.8 | 8.0 | 0.00 | 0.00 | 0.00 | 37 | 1018.6 |
| 20260502004416 | 11 | 355 | 4.8 | 12.9 | 0.00 | 0.00 | 0.00 | 37 | 1018.7 |
| 20260502004321 | 11 | 360 | 4.8 | 14.5 | 0.00 | 0.00 | 0.00 | 37 | 1018.6 |
| 20260502004206 | 11 | 355 | 4.8 | 14.5 | 0.00 | 0.00 | 0.00 | 39 | 1018.6 |
| 20260502004110 | 11 | 13 | 3.2 | 14.5 | 0.00 | 0.00 | 0.00 | 38 | 1018.6 |
| 20260502004012 | 11 | 13 | 4.8 | 14.5 | 0.00 | 0.00 | 0.00 | 36 | 1018.6 |
| 20260502003937 | 11 | 313 | 4.8 | 14.5 | 0.00 | 0.00 | 0.00 | 36 | 1018.6 |
| 20260502003803 | 11 | 351 | 4.8 | 14.5 | 0.00 | 0.00 | 0.00 | 37 | 1018.7 |
| 20260502003707 | 11 | 40 | 6.4 | 14.5 | 0.00 | 0.00 | 0.00 | 37 | 1018.6 |
| 20260502003612 | 11 | 49 | 8.0 | 14.5 | 0.00 | 0.00 | 0.00 | 36 | 1018.6 |
| 20260502003516 | 11 | 5 | 8.0 | 14.5 | 0.00 | 0.00 | 0.00 | 38 | 1018.7 |
| 20260502003418 | 11 | 47 | 6.4 | 8.0 | 0.00 | 0.00 | 0.00 | 39 | 1018.6 |
| 20260502003306 | 11 | 5 | 4.8 | 8.0 | 0.00 | 0.00 | 0.00 | 38 | 1018.6 |
| 20260502003208 | 11 | 28 | 4.8 | 8.0 | 0.00 | 0.00 | 0.00 | 38 | 1018.6 |
| 20260502003108 | 11 | 34 | 4.8 | 8.0 | 0.00 | 0.00 | 0.00 | 37 | 1018.6 |
| 20260502003010 | 11 | 351 | 4.8 | 9.7 | 0.00 | 0.00 | 0.00 | 37 | 1018.7 |
| 20260502002916 | 11 | 24 | 4.8 | 9.7 | 0.00 | 0.00 | 0.00 | 38 | 1018.6 |
| 20260502002818 | 11 | 5 | 4.8 | 9.7 | 0.00 | 0.00 | 0.00 | 38 | 1018.6 |
| 20260502002703 | 11 | 355 | 4.8 | 9.7 | 0.00 | 0.00 | 0.00 | 39 | 1018.7 |
| 20260502002608 | 11 | 334 | 6.4 | 9.7 | 0.00 | 0.00 | 0.00 | 40 | 1018.7 |
| 20260502002512 | 11 | 344 | 6.4 | 9.7 | 0.00 | 0.00 | 0.00 | 36 | 1018.6 |
| 20260502002415 | 11 | 360 | 4.8 | 9.7 | 0.00 | 0.00 | 0.00 | 38 | 1018.6 |
| 20260502002319 | 11 | 355 | 4.8 | 9.7 | 0.00 | 0.00 | 0.00 | 37 | 1018.6 |
| 20260502002220 | 11 | 340 | 6.4 | 9.7 | 0.00 | 0.00 | 0.00 | 37 | 1018.7 |
| 20260502002105 | 11 | 337 | 4.8 | 8.0 | 0.00 | 0.00 | 0.00 | 39 | 1018.7 |
| 20260502002009 | 11 | 355 | 4.8 | 8.0 | 0.00 | 0.00 | 0.00 | 37 | 1018.7 |
| 20260502001930 | 11 | 347 | 3.2 | 8.0 | 0.00 | 0.00 | 0.00 | 38 | 1018.7 |
| 20260502001811 | 11 | 17 | 3.2 | 9.7 | 0.00 | 0.00 | 0.00 | 38 | 1018.7 |
| 20260502001713 | 11 | 11 | 3.2 | 9.7 | 0.00 | 0.00 | 0.00 | 40 | 1018.7 |
| 20260502001618 | 11 | 11 | 3.2 | 12.9 | 0.00 | 0.00 | 0.00 | 38 | 1018.7 |
| 20260502001519 | 11 | 11 | 6.4 | 12.9 | 0.00 | 0.00 | 0.00 | 37 | 1018.7 |
| 20260502001424 | 11 | 30 | 6.4 | 12.9 | 0.00 | 0.00 | 0.00 | 38 | 1018.7 |
| 20260502001326 | 11 | 15 | 4.8 | 12.9 | 0.00 | 0.00 | 0.00 | 38 | 1018.7 |
| 20260502001207 | 11 | 355 | 6.4 | 12.9 | 0.00 | 0.00 | 0.00 | 37 | 1018.8 |
| 20260502001109 | 11 | 340 | 6.4 | 12.9 | 0.00 | 0.00 | 0.00 | 37 | 1018.7 |
| 20260502001029 | 11 | 5 | 6.4 | 12.9 | 0.00 | 0.00 | 0.00 | 38 | 1018.8 |
| 20260502000910 | 11 | 328 | 8.0 | 12.9 | 0.00 | 0.00 | 0.00 | 38 | 1018.8 |
| 20260502000832 | 11 | 339 | 8.0 | 12.9 | 0.00 | 0.00 | 0.00 | 38 | 1018.7 |
| 20260502000717 | 11 | 15 | 6.4 | 12.9 | 0.00 | 0.00 | 0.00 | 38 | 1018.8 |
| 20260502000638 | 11 | 360 | 4.8 | 9.7 | 0.00 | 0.00 | 0.00 | 39 | 1018.7 |
| 20260502000518 | 11 | 15 | 4.8 | 12.9 | 0.00 | 0.00 | 0.00 | 39 | 1018.6 |
| 20260502000403 | 11 | 19 | 4.8 | 14.5 | 0.00 | 0.00 | 0.00 | 39 | 1018.7 |
| 20260502000310 | 11 | 5 | 4.8 | 14.5 | 0.00 | 0.00 | 0.00 | 40 | 1018.7 |
| 20260502000233 | 11 | 327 | 4.8 | 14.5 | 0.00 | 0.00 | 0.00 | 37 | 1018.7 |
| 20260502000113 | 11 | 343 | 4.8 | 14.5 | 0.00 | 0.00 | 0.00 | 39 | 1018.7 |
| 20260502000036 | 11 | 295 | 4.8 | 14.5 | 0.00 | 0.00 | 0.00 | 37 | 1018.6 |
| 20260501235921 | 11 | 331 | 4.8 | 14.5 | 0.00 | 0.00 | 0.00 | 38 | 1018.7 |
| 20260501235840 | 11 | 301 | 6.4 | 14.5 | 0.00 | 0.00 | 0.00 | 38 | 1018.6 |
| 20260501235722 | 11 | 301 | 9.7 | 14.5 | 0.00 | 0.00 | 0.00 | 37 | 1018.7 |
| 20260501235645 | 11 | 319 | 9.7 | 16.1 | 0.00 | 0.00 | 0.00 | 37 | 1018.7 |
| 20260501235523 | 11 | 333 | 8.0 | 16.1 | 0.00 | 0.00 | 0.00 | 39 | 1018.7 |
| 20260501235407 | 11 | 5 | 8.0 | 16.1 | 0.00 | 0.00 | 0.00 | 38 | 1018.7 |
| 20260501235310 | 11 | 342 | 8.0 | 16.1 | 0.00 | 0.00 | 0.00 | 37 | 1018.7 |
| 20260501235215 | 11 | 325 | 8.0 | 16.1 | 0.00 | 0.00 | 0.00 | 38 | 1018.7 |
| 20260501235135 | 11 | 5 | 6.4 | 16.1 | 0.00 | 0.00 | 0.00 | 38 | 1018.7 |
| 20260501235016 | 11 | 24 | 9.7 | 16.1 | 0.00 | 0.00 | 0.00 | 36 | 1018.8 |
| 20260501234940 | 11 | 39 | 9.7 | 16.1 | 0.00 | 0.00 | 0.00 | 37 | 1018.8 |
| 20260501234820 | 11 | 9 | 6.4 | 16.1 | 0.00 | 0.00 | 0.00 | 39 | 1018.8 |
| 20260501234740 | 11 | 341 | 6.4 | 14.5 | 0.00 | 0.00 | 0.00 | 37 | 1018.7 |
| 20260501234621 | 11 | 37 | 6.4 | 16.1 | 0.00 | 0.00 | 0.00 | 37 | 1018.7 |
| 20260501234522 | 11 | 26 | 8.0 | 16.1 | 0.00 | 0.00 | 0.00 | 37 | 1018.8 |
| 20260501234407 | 11 | 5 | 8.0 | 16.1 | 0.00 | 0.00 | 0.00 | 37 | 1018.7 |
| 20260501234328 | 11 | 360 | 6.4 | 16.1 | 0.00 | 0.00 | 0.00 | 37 | 1018.7 |
| 20260501234209 | 11 | 18 | 6.4 | 16.1 | 0.00 | 0.00 | 0.00 | 37 | 1018.7 |
| 20260501234110 | 11 | 360 | 8.0 | 16.1 | 0.00 | 0.00 | 0.00 | 37 | 1018.7 |
| 20260501234012 | 11 | 336 | 8.0 | 16.1 | 0.00 | 0.00 | 0.00 | 38 | 1018.7 |
| 20260501233913 | 11 | 355 | 9.7 | 16.1 | 0.00 | 0.00 | 0.00 | 36 | 1018.7 |
| 20260501233837 | 11 | 355 | 11.3 | 16.1 | 0.00 | 0.00 | 0.00 | 36 | 1018.7 |
| 20260501233743 | 11 | 360 | 9.7 | 16.1 | 0.00 | 0.00 | 0.00 | 36 | 1018.7 |
| 20260501233607 | 11 | 355 | 9.7 | 14.5 | 0.00 | 0.00 | 0.00 | 37 | 1018.7 |
| 20260501233508 | 11 | 338 | 9.7 | 12.9 | 0.00 | 0.00 | 0.00 | 38 | 1018.8 |
| 20260501233412 | 11 | 339 | 8.0 | 12.9 | 0.00 | 0.00 | 0.00 | 37 | 1018.7 |
| 20260501233313 | 11 | 350 | 6.4 | 9.7 | 0.00 | 0.00 | 0.00 | 36 | 1018.7 |
| 20260501233236 | 11 | 339 | 6.4 | 9.7 | 0.00 | 0.00 | 0.00 | 37 | 1018.6 |
| 20260501233116 | 11 | 27 | 6.4 | 9.7 | 0.00 | 0.00 | 0.00 | 39 | 1018.7 |
| 20260501233021 | 11 | 5 | 6.4 | 9.7 | 0.00 | 0.00 | 0.00 | 37 | 1018.7 |
| 20260501232923 | 11 | 326 | 4.8 | 9.7 | 0.00 | 0.00 | 0.00 | 38 | 1018.7 |
| 20260501232825 | 11 | 338 | 4.8 | 8.0 | 0.00 | 0.00 | 0.00 | 40 | 1018.7 |
| 20260501232708 | 11 | 297 | 4.8 | 8.0 | 0.00 | 0.00 | 0.00 | 42 | 1018.7 |
| 20260501232613 | 11 | 296 | 4.8 | 9.7 | 0.00 | 0.00 | 0.00 | 41 | 1018.7 |
| 20260501232536 | 11 | 285 | 4.8 | 8.0 | 0.00 | 0.00 | 0.00 | 36 | 1018.6 |
| 20260501232420 | 11 | 283 | 3.2 | 12.9 | 0.00 | 0.00 | 0.00 | 37 | 1018.6 |
| 20260501232306 | 11 | 61 | 1.6 | 14.5 | 0.00 | 0.00 | 0.00 | 34 | 1018.6 |
| 20260501232210 | 11 | 61 | 1.6 | 14.5 | 0.00 | 0.00 | 0.00 | 34 | 1018.6 |
| 20260501232135 | 11 | 59 | 3.2 | 14.5 | 0.00 | 0.00 | 0.00 | 35 | 1018.7 |
| 20260501232018 | 11 | 59 | 3.2 | 14.5 | 0.00 | 0.00 | 0.00 | 35 | 1018.6 |
| 20260501231922 | 11 | 59 | 4.8 | 14.5 | 0.00 | 0.00 | 0.00 | 35 | 1018.7 |
| 20260501231806 | 11 | 59 | 4.8 | 14.5 | 0.00 | 0.00 | 0.00 | 35 | 1018.7 |
| 20260501231713 | 11 | 57 | 6.4 | 14.5 | 0.00 | 0.00 | 0.00 | 34 | 1018.7 |
| 20260501231617 | 11 | 69 | 8.0 | 14.5 | 0.00 | 0.00 | 0.00 | 34 | 1018.8 |
| 20260501231521 | 11 | 67 | 9.7 | 14.5 | 0.00 | 0.00 | 0.00 | 37 | 1018.7 |
| 20260501231442 | 11 | 72 | 8.0 | 14.5 | 0.00 | 0.00 | 0.00 | 36 | 1018.8 |
| 20260501231322 | 11 | 70 | 6.4 | 17.7 | 0.00 | 0.00 | 0.00 | 35 | 1018.8 |
| 20260501231224 | 11 | 60 | 6.4 | 17.7 | 0.00 | 0.00 | 0.00 | 37 | 1018.8 |
| 20260501231109 | 11 | 59 | 4.8 | 17.7 | 0.00 | 0.00 | 0.00 | 36 | 1018.8 |
| 20260501231011 | 12 | 61 | 4.8 | 19.3 | 0.00 | 0.00 | 0.00 | 36 | 1018.9 |
| 20260501230913 | 12 | 61 | 8.0 | 19.3 | 0.00 | 0.00 | 0.00 | 36 | 1018.8 |
| 20260501230813 | 12 | 44 | 8.0 | 19.3 | 0.00 | 0.00 | 0.00 | 35 | 1018.8 |
| 20260501230718 | 12 | 53 | 9.7 | 19.3 | 0.00 | 0.00 | 0.00 | 36 | 1018.8 |
| 20260501230619 | 12 | 25 | 11.3 | 19.3 | 0.00 | 0.00 | 0.00 | 34 | 1018.8 |
| 20260501230508 | 12 | 25 | 11.3 | 19.3 | 0.00 | 0.00 | 0.00 | 35 | 1018.9 |
| 20260501230429 | 12 | 14 | 11.3 | 19.3 | 0.00 | 0.00 | 0.00 | 36 | 1018.8 |
| 20260501230312 | 12 | 33 | 11.3 | 20.9 | 0.00 | 0.00 | 0.00 | 35 | 1018.8 |
| 20260501230213 | 12 | 9 | 11.3 | 20.9 | 0.00 | 0.00 | 0.00 | 36 | 1018.8 |
| 20260501230118 | 12 | 313 | 9.7 | 20.9 | 0.00 | 0.00 | 0.00 | 35 | 1018.8 |
| 20260501230016 | 12 | 336 | 9.7 | 20.9 | 0.00 | 0.00 | 0.00 | 35 | 1018.9 |
| 20260501225918 | 12 | 5 | 11.3 | 20.9 | 0.00 | 0.00 | 0.00 | 34 | 1018.8 |
| 20260501225826 | 12 | 13 | 11.3 | 20.9 | 0.00 | 0.00 | 0.00 | 34 | 1018.8 |
| 20260501225703 | 12 | 350 | 11.3 | 20.9 | 0.00 | 0.00 | 0.00 | 35 | 1018.8 |
| 20260501225607 | 12 | 30 | 14.5 | 20.9 | 0.00 | 0.00 | 0.00 | 36 | 1018.9 |
| 20260501225510 | 12 | 360 | 14.5 | 20.9 | 0.00 | 0.00 | 0.00 | 36 | 1018.8 |
| 20260501225410 | 12 | 326 | 12.9 | 19.3 | 0.00 | 0.00 | 0.00 | 35 | 1018.8 |
| 20260501225331 | 12 | 17 | 12.9 | 19.3 | 0.00 | 0.00 | 0.00 | 35 | 1018.8 |
| 20260501225212 | 12 | 24 | 12.9 | 20.9 | 0.00 | 0.00 | 0.00 | 34 | 1018.8 |
| 20260501225120 | 12 | 336 | 11.3 | 20.9 | 0.00 | 0.00 | 0.00 | 36 | 1018.8 |
| 20260501225021 | 12 | 5 | 11.3 | 20.9 | 0.00 | 0.00 | 0.00 | 35 | 1018.7 |
| 20260501224923 | 12 | 343 | 14.5 | 20.9 | 0.00 | 0.00 | 0.00 | 36 | 1018.9 |
| 20260501224825 | 12 | 355 | 12.9 | 20.9 | 0.00 | 0.00 | 0.00 | 36 | 1018.8 |
| 20260501224706 | 12 | 12 | 12.9 | 20.9 | 0.00 | 0.00 | 0.00 | 36 | 1018.8 |
| 20260501224627 | 12 | 360 | 12.9 | 20.9 | 0.00 | 0.00 | 0.00 | 37 | 1018.8 |
| 20260501224515 | 11 | 12 | 12.9 | 20.9 | 0.00 | 0.00 | 0.00 | 37 | 1018.8 |
| 20260501224416 | 11 | 27 | 12.9 | 20.9 | 0.00 | 0.00 | 0.00 | 36 | 1018.8 |
| 20260501224317 | 11 | 355 | 11.3 | 19.3 | 0.00 | 0.00 | 0.00 | 37 | 1018.8 |
| 20260501224218 | 11 | 10 | 12.9 | 19.3 | 0.00 | 0.00 | 0.00 | 37 | 1018.8 |
| 20260501224140 | 11 | 334 | 12.9 | 19.3 | 0.00 | 0.00 | 0.00 | 36 | 1018.8 |
| 20260501224020 | 11 | 335 | 11.3 | 17.7 | 0.00 | 0.00 | 0.00 | 36 | 1018.8 |
| 20260501223918 | 11 | 342 | 12.9 | 17.7 | 0.00 | 0.00 | 0.00 | 36 | 1018.9 |
| 20260501223804 | 12 | 326 | 11.3 | 17.7 | 0.00 | 0.00 | 0.00 | 37 | 1018.8 |
| 20260501223708 | 12 | 22 | 9.7 | 17.7 | 0.00 | 0.00 | 0.00 | 37 | 1018.8 |
| 20260501223612 | 12 | 335 | 9.7 | 17.7 | 0.00 | 0.00 | 0.00 | 37 | 1018.7 |
| 20260501223517 | 12 | 360 | 9.7 | 17.7 | 0.00 | 0.00 | 0.00 | 36 | 1018.8 |
| 20260501223439 | 12 | 355 | 9.7 | 24.1 | 0.00 | 0.00 | 0.00 | 37 | 1018.9 |
| 20260501223322 | 12 | 11 | 8.0 | 24.1 | 0.00 | 0.00 | 0.00 | 36 | 1018.8 |
| 20260501223243 | 12 | 5 | 9.7 | 24.1 | 0.00 | 0.00 | 0.00 | 37 | 1018.8 |
| 20260501223111 | 12 | 360 | 12.9 | 24.1 | 0.00 | 0.00 | 0.00 | 38 | 1018.9 |
| 20260501223015 | 12 | 360 | 11.3 | 24.1 | 0.00 | 0.00 | 0.00 | 37 | 1018.9 |
| 20260501222920 | 12 | 11 | 9.7 | 24.1 | 0.00 | 0.00 | 0.00 | 35 | 1018.8 |
| 20260501222823 | 12 | 36 | 9.7 | 24.1 | 0.00 | 0.00 | 0.00 | 35 | 1018.8 |
| 20260501222722 | 12 | 53 | 14.5 | 25.7 | 0.00 | 0.00 | 0.00 | 35 | 1018.9 |
| 20260501222643 | 12 | 355 | 16.1 | 25.7 | 0.00 | 0.00 | 0.00 | 35 | 1018.9 |
| 20260501222511 | 12 | 347 | 14.5 | 25.7 | 0.00 | 0.00 | 0.00 | 35 | 1018.8 |
| 20260501222412 | 12 | 346 | 14.5 | 25.7 | 0.00 | 0.00 | 0.00 | 36 | 1018.8 |
| 20260501222314 | 12 | 13 | 12.9 | 25.7 | 0.00 | 0.00 | 0.00 | 36 | 1018.8 |
| 20260501222236 | 12 | 355 | 14.5 | 25.7 | 0.00 | 0.00 | 0.00 | 36 | 1018.8 |
| 20260501222136 | 12 | 5 | 17.7 | 25.7 | 0.00 | 0.00 | 0.00 | 37 | 1018.8 |
| 20260501222036 | 12 | 11 | 17.7 | 25.7 | 0.00 | 0.00 | 0.00 | 36 | 1018.9 |
| 20260501221916 | 12 | 47 | 14.5 | 24.1 | 0.00 | 0.00 | 0.00 | 37 | 1019.1 |
| 20260501221820 | 12 | 71 | 12.9 | 19.3 | 0.00 | 0.00 | 0.00 | 35 | 1018.8 |
| 20260501221740 | 12 | 355 | 11.3 | 20.9 | 0.00 | 0.00 | 0.00 | 35 | 1018.9 |
| 20260501221605 | 12 | 28 | 8.0 | 20.9 | 0.00 | 0.00 | 0.00 | 36 | 1018.8 |
| 20260501221509 | 12 | 30 | 9.7 | 20.9 | 0.00 | 0.00 | 0.00 | 36 | 1018.8 |
| 20260501221409 | 12 | 23 | 9.7 | 20.9 | 0.00 | 0.00 | 0.00 | 37 | 1018.8 |
| 20260501221313 | 12 | 347 | 8.0 | 20.9 | 0.00 | 0.00 | 0.00 | 37 | 1018.8 |
| 20260501221218 | 12 | 22 | 8.0 | 20.9 | 0.00 | 0.00 | 0.00 | 36 | 1018.7 |
| 20260501221118 | 12 | 360 | 11.3 | 20.9 | 0.00 | 0.00 | 0.00 | 37 | 1018.8 |
| 20260501221006 | 12 | 65 | 11.3 | 20.9 | 0.00 | 0.00 | 0.00 | 37 | 1018.9 |
| 20260501220931 | 12 | 79 | 11.3 | 20.9 | 0.00 | 0.00 | 0.00 | 37 | 1018.9 |
| 20260501220815 | 12 | 32 | 8.0 | 19.3 | 0.00 | 0.00 | 0.00 | 37 | 1018.8 |
| 20260501220718 | 11 | 5 | 6.4 | 19.3 | 0.00 | 0.00 | 0.00 | 38 | 1018.9 |